GFSWCAN_sfc_thetae_057.txt.gz
Theta_e
292 293 293 294 295 295 299 299 299 300 300 300 300 300 300 300 300 296 289 294 288 278 281 284 284 282 280 277 271 273 277 279 282 277 276 274 277 276 277 280 279 280 279 281 283 281 280 286 285 286 290 283 282 285
292 292 292 293 294 295 294 298 299 299 300 299 299 299 299 300 300 299 288 292 290 284 278 285 285 286 286 285 280 278 278 275 282 278 274 274 271 278 279 276 281 279 285 284 285 285 289 289 289 291 290 289 286 286
292 292 293 292 293 294 295 296 298 298 298 299 299 299 299 299 299 298 290 291 290 284 282 282 280 285 287 287 290 282 277 284 281 283 282 280 277 277 274 279 281 283 285 284 284 282 285 290 289 287 286 286 286 287
291 291 292 292 292 293 294 293 298 298 298 298 298 299 299 299 299 299 290 291 289 282 275 274 284 282 285 287 287 288 286 285 285 284 283 280 277 283 280 281 279 280 282 282 281 285 285 288 287 288 289 287 285 284
290 291 292 292 292 293 293 293 297 297 298 298 298 298 298 298 298 297 292 291 291 282 270 268 276 283 285 284 284 285 286 285 283 280 280 279 283 282 281 280 280 282 281 280 280 285 286 287 284 284 285 286 285 282
290 291 291 292 292 293 294 295 296 296 297 298 298 298 298 297 298 290 282 289 291 289 278 269 277 275 279 281 282 283 285 285 284 281 281 283 284 282 277 276 282 285 285 286 286 283 284 284 284 283 283 284 284 282
291 291 291 292 292 294 295 295 295 296 297 297 298 297 296 297 293 285 282 286 293 290 279 271 265 274 279 280 281 279 283 283 284 283 281 282 282 285 281 277 281 283 284 281 280 282 284 285 284 282 283 280 279 278
290 290 291 291 291 293 293 294 295 296 296 296 295 295 296 297 293 287 290 293 293 285 280 268 266 267 280 277 277 282 278 282 282 281 283 281 281 282 277 281 283 284 277 277 276 275 278 278 280 280 279 279 280 278
290 290 291 291 291 292 294 293 296 295 294 295 295 295 291 289 283 284 294 294 289 282 274 274 265 266 279 279 280 279 282 276 275 278 279 280 279 276 278 281 281 273 273 273 271 272 274 274 274 274 276 276 277 276
289 290 291 292 292 293 293 294 293 294 294 294 289 284 279 284 292 291 284 280 280 279 277 265 260 264 276 276 274 270 276 273 269 273 277 275 277 270 267 264 264 264 265 265 270 269 269 269 270 271 270 270 273 272
289 291 291 292 292 292 293 293 293 293 293 284 280 277 283 291 283 278 274 272 272 271 274 267 270 264 272 266 266 276 266 272 270 269 273 269 264 269 264 262 261 261 262 262 264 265 265 266 268 270 267 265 266 267
290 291 290 291 291 291 291 292 293 288 284 283 282 284 282 278 275 272 268 269 268 263 261 271 267 273 267 272 268 268 266 266 265 269 271 265 267 259 259 259 258 258 258 258 260 260 260 261 261 263 262 261 260 261
290 290 290 290 291 291 292 293 292 291 289 284 280 276 275 271 268 267 263 259 263 260 261 271 271 271 276 277 271 269 265 264 265 269 263 265 257 255 255 256 257 257 258 259 259 259 258 256 256 257 258 258 259 257
289 289 289 290 290 290 291 292 292 289 282 276 273 268 266 263 259 260 259 258 259 269 267 272 268 275 268 274 272 266 269 265 263 266 264 252 252 252 254 254 253 254 254 256 256 256 256 256 254 255 255 256 256 255
288 288 289 288 289 290 290 292 289 277 276 273 271 267 260 253 252 249 250 258 255 255 258 267 267 275 272 273 273 267 266 259 260 259 248 250 251 251 252 253 253 253 253 253 254 255 255 255 254 253 254 255 255 255
288 286 283 288 289 290 288 282 276 272 262 262 254 258 254 254 252 250 248 249 255 257 256 258 260 270 268 271 263 260 260 264 259 246 249 251 250 252 251 252 252 252 253 253 253 254 254 254 253 253 253 253 254 253
283 276 288 286 284 282 282 270 268 261 259 255 250 249 247 248 247 247 246 251 256 253 262 264 262 262 263 263 256 248 249 248 248 246 250 251 251 252 252 252 253 253 253 253 254 253 253 255 255 255 253 253 253 254
276 281 285 283 274 272 267 267 263 259 253 254 252 249 250 247 246 245 247 253 252 253 254 256 259 254 256 258 254 248 248 248 251 250 251 252 252 251 253 253 253 253 253 253 253 254 255 255 254 253 254 254 254 254
280 281 282 281 273 261 259 261 261 255 254 254 253 252 250 249 252 252 251 254 254 254 254 254 253 242 243 244 244 245 248 250 251 252 252 253 253 252 253 253 253 252 252 252 252 252 252 252 253 253 254 254 253 253
277 278 278 277 272 261 255 256 257 255 253 253 253 251 248 247 249 248 251 251 251 248 245 242 240 241 243 244 246 249 251 254 253 251 251 252 253 252 252 252 253 253 252 252 252 253 253 251 251 251 251 253 252 250
269 269 270 266 260 259 255 254 255 253 253 251 252 250 250 250 247 246 247 250 247 245 242 242 242 243 246 247 248 248 252 255 254 253 252 251 252 252 251 251 252 251 251 251 250 249 249 248 249 250 250 249 248 248
263 267 258 261 258 255 255 256 257 258 254 251 251 250 246 245 244 245 248 245 244 243 243 243 244 243 244 246 247 249 252 252 253 253 253 252 251 250 249 250 250 248 248 248 249 248 248 249 249 249 248 247 247 247
261 260 254 252 252 251 250 255 251 254 251 250 250 247 246 244 247 251 243 241 243 247 244 244 244 245 246 248 249 250 251 251 250 249 249 249 249 249 249 248 249 249 248 247 248 248 247 248 248 247 247 246 245 245
256 248 245 244 245 242 245 247 250 251 249 246 247 244 244 246 251 247 241 240 244 247 246 245 245 246 249 248 247 247 248 250 249 249 249 249 247 246 247 246 247 246 246 247 247 246 246 245 246 245 244 241 240 239
250 241 244 238 241 241 240 241 243 246 243 244 245 245 246 249 246 242 242 242 246 247 247 247 248 249 248 248 248 247 248 250 249 247 247 248 247 246 246 245 244 243 242 244 242 241 239 238 239 238 239 237 237 238
238 240 239 236 238 238 237 237 239 240 240 240 240 245 245 246 244 241 242 245 246 246 246 246 248 248 247 248 248 248 246 247 250 248 247 247 248 248 246 243 242 243 237 236 237 237 237 238 236 236 237 239 240 238
237 237 238 238 238 239 239 239 238 239 238 238 238 242 244 243 239 242 245 246 245 246 247 247 247 249 248 247 247 246 246 246 247 247 246 245 244 244 242 241 240 242 238 236 235 235 237 236 236 237 238 238 237 239
239 238 237 237 236 233 233 233 233 234 237 242 241 240 240 240 239 243 245 247 245 246 246 246 246 247 247 247 246 247 246 246 246 246 246 245 244 243 241 239 239 247 241 238 239 238 234 235 236 239 240 241 243 241
240 240 238 236 235 237 236 235 234 236 241 239 239 241 241 244 244 244 244 246 246 245 244 245 246 247 246 246 246 246 246 247 247 248 247 247 247 246 243 241 237 237 236 235 243 249 246 243 244 244 244 243 244 242
241 239 238 236 237 237 239 239 236 238 240 243 243 244 243 245 245 247 246 244 244 243 244 244 245 246 247 247 247 247 246 246 246 246 244 244 244 240 236 236 237 237 236 232 239 240 244 242 241 238 239 240 241 242
243 240 240 241 241 241 241 241 241 243 244 243 242 241 241 240 244 244 244 242 242 243 244 245 245 245 246 246 246 246 247 243 238 238 237 237 237 236 237 239 239 237 235 236 237 235 239 239 238 239 239 240 241 242
242 240 242 243 242 242 241 241 242 243 243 244 243 242 242 243 243 244 245 243 242 242 245 246 246 247 245 245 242 242 245 241 240 241 240 241 240 240 240 240 240 238 237 239 240 240 240 239 240 241 242 242 242 243
237 239 239 241 241 243 240 239 242 242 242 240 240 237 237 240 244 245 245 243 244 245 246 246 245 243 241 241 241 240 242 240 240 246 249 248 246 246 245 245 243 242 242 242 243 242 241 241 242 242 242 243 243 243

GFSWCAN_sfc_thetae_060.txt.gz
Theta_e
292 292 292 293 293 294 294 295 296 298 297 301 301 301 302 302 302 297 293 297 290 285 286 287 287 284 285 285 281 281 283 283 282 279 279 278 277 279 278 281 280 280 280 280 282 280 278 290 290 289 289 291 291 292
292 292 292 293 293 293 293 294 295 296 295 298 301 301 302 302 302 300 288 296 295 287 285 289 289 290 290 289 286 282 284 280 285 282 281 280 277 281 279 275 284 279 284 282 284 284 292 293 293 295 293 290 292 294
292 291 292 292 292 293 293 293 294 295 296 294 301 301 301 301 301 300 289 293 291 285 284 284 284 289 290 290 293 284 284 287 285 287 284 282 277 281 276 279 282 285 289 284 283 288 289 291 294 295 292 292 294 293
291 291 291 291 291 292 293 293 293 294 295 294 300 300 300 301 301 300 290 293 291 286 280 280 286 285 289 290 289 290 289 288 288 287 282 281 278 284 279 280 280 283 285 284 284 287 289 290 291 292 291 291 291 289
291 291 291 291 291 291 292 293 293 294 295 294 299 300 300 300 301 298 292 293 293 286 278 277 280 286 288 287 286 287 286 285 284 281 280 278 283 282 283 282 280 285 283 280 280 286 286 289 291 288 287 288 289 288
291 291 291 291 291 291 291 292 292 293 294 293 297 299 300 300 300 294 282 291 293 290 281 275 281 280 285 286 286 285 286 285 284 282 281 282 285 282 277 276 283 286 286 287 285 288 289 290 289 288 287 287 285 285
291 291 290 291 291 292 292 292 292 293 294 293 298 298 299 299 296 286 283 288 294 291 281 275 276 278 281 282 282 283 285 284 284 281 280 281 281 283 279 275 282 284 286 287 288 287 285 288 287 285 284 285 282 280
289 290 291 291 291 292 292 292 293 294 292 295 298 298 298 299 296 287 291 295 293 285 282 272 272 275 281 277 277 282 280 281 281 281 282 280 282 282 275 281 283 285 286 287 286 285 286 281 280 281 281 281 281 281
290 291 291 291 291 292 292 293 294 294 296 297 296 297 294 289 284 286 294 295 289 284 276 273 271 271 280 279 280 280 282 276 282 278 278 280 277 274 279 280 281 276 276 276 275 275 276 276 278 277 277 278 280 278
290 290 290 291 290 290 294 293 294 296 296 296 292 284 280 284 294 293 287 281 281 281 276 273 271 272 278 277 277 277 279 276 274 277 280 277 276 280 269 266 266 265 266 266 270 273 273 273 274 274 273 272 273 274
290 290 290 290 291 293 293 292 295 294 295 284 280 278 286 292 284 280 276 275 275 273 276 273 272 273 277 273 274 277 273 274 270 274 275 274 273 272 264 262 262 262 263 264 263 266 266 267 270 272 269 267 268 268
291 290 291 291 293 294 293 293 295 287 284 283 284 286 284 280 277 273 271 272 270 269 270 272 273 276 275 277 275 273 272 270 268 273 272 270 271 258 258 259 260 260 259 261 262 262 262 262 263 266 265 264 263 263
290 290 291 291 292 293 293 294 292 291 289 285 281 277 275 272 270 268 265 266 268 266 268 272 272 274 276 278 274 272 269 269 269 270 269 270 256 256 255 256 256 258 259 260 260 260 260 259 259 260 260 260 261 260
290 290 290 291 292 292 293 293 292 289 283 278 274 268 270 267 268 265 267 266 264 268 271 273 273 274 274 274 274 270 272 269 267 264 267 254 254 253 253 255 254 255 256 257 258 258 258 257 257 257 257 258 258 257
289 290 290 290 291 292 291 289 283 274 274 271 272 266 265 256 254 253 255 258 257 260 265 269 270 276 273 274 274 269 266 265 266 266 256 253 252 252 253 253 253 254 254 255 256 256 256 256 255 255 255 257 257 257
288 288 286 291 289 288 285 279 272 270 260 260 254 258 255 259 256 253 252 253 256 259 260 265 270 272 269 271 267 267 266 265 262 252 252 253 252 253 253 253 254 254 254 254 255 255 255 255 254 254 255 255 256 256
285 282 287 286 284 281 281 271 267 260 256 253 250 250 250 251 250 249 250 253 257 256 263 264 264 265 266 263 260 256 260 252 251 251 251 252 252 252 253 254 254 254 254 255 255 255 256 256 257 256 254 255 255 255
279 283 284 283 275 273 266 266 262 258 252 253 251 250 250 250 250 250 251 254 255 256 259 261 261 261 265 261 260 251 251 252 252 252 253 253 253 253 253 253 254 254 254 254 254 255 256 256 255 255 255 256 255 255
278 278 281 280 274 266 264 261 262 254 253 253 253 253 251 251 252 252 252 254 254 254 256 256 258 257 253 248 248 248 250 251 252 253 253 253 253 253 253 254 253 253 253 253 253 253 253 253 253 255 255 255 254 255
276 277 277 275 271 261 257 258 260 255 254 254 255 252 251 250 250 249 250 251 251 249 248 248 246 245 246 248 248 249 250 252 253 252 252 253 254 253 252 253 253 254 254 253 253 254 254 252 252 252 252 253 252 251
269 269 270 265 259 258 255 255 254 254 254 252 253 252 251 250 247 246 247 250 248 246 245 244 245 246 246 246 248 248 250 251 253 254 253 251 253 253 252 253 253 253 252 252 251 251 251 250 251 251 251 250 250 250
263 267 258 261 258 255 254 255 255 255 252 250 251 249 247 246 245 246 248 246 245 245 245 245 245 244 244 244 245 247 249 249 252 254 254 253 252 251 251 251 251 250 249 250 250 250 249 250 251 250 250 250 250 250
261 260 254 253 253 252 250 253 251 251 249 250 251 247 246 245 248 251 244 243 244 247 244 243 243 242 244 245 245 247 248 250 250 250 250 250 250 250 250 250 251 250 249 249 250 249 249 250 250 250 250 249 249 249
256 248 245 244 246 244 245 245 248 248 248 247 249 247 246 243 248 244 241 240 243 245 244 243 242 244 245 245 246 246 247 250 250 250 250 250 248 247 248 248 248 248 248 249 249 248 248 248 248 248 247 247 246 246
252 241 244 240 242 242 240 240 242 246 244 241 242 243 243 243 243 241 241 241 242 241 243 244 245 246 245 246 248 248 248 251 250 248 249 249 248 248 248 247 247 246 246 249 247 247 246 245 245 245 245 244 243 243
239 240 239 237 239 239 238 237 237 238 240 242 240 242 241 242 243 241 243 244 245 243 244 246 247 247 247 249 249 249 248 248 251 249 248 250 250 250 249 249 248 247 243 243 244 244 244 244 243 242 243 243 243 242
237 237 238 238 240 240 238 238 237 238 238 239 239 241 242 240 239 242 246 247 247 246 248 248 247 249 248 247 247 247 247 248 248 249 248 247 247 247 248 248 247 247 243 242 242 242 243 242 242 242 242 243 242 243
238 236 237 237 237 233 233 233 233 235 237 240 239 239 239 240 241 243 245 246 243 244 246 247 248 248 248 248 248 248 247 247 247 248 247 247 247 246 245 245 245 247 244 243 242 241 239 240 241 241 242 243 244 245
238 237 237 235 234 236 235 235 235 236 240 235 237 238 239 241 240 238 242 243 242 243 242 244 246 247 247 247 247 247 248 248 248 249 249 250 249 248 246 245 244 244 242 240 243 249 247 245 244 245 245 245 245 245
239 236 236 234 235 236 237 237 235 235 235 239 239 242 241 240 241 244 242 242 242 241 240 240 242 246 248 248 248 248 247 248 248 249 249 249 249 246 244 242 242 241 240 238 242 242 244 244 243 241 243 243 243 244
240 236 237 237 239 239 239 239 239 240 242 241 240 238 239 241 246 247 247 246 242 239 240 241 241 245 246 248 248 248 249 247 246 247 246 245 243 240 240 241 241 240 237 238 239 238 240 241 241 240 241 241 242 243
240 237 240 240 241 241 240 239 241 242 243 243 241 239 240 241 244 244 245 241 238 239 243 245 245 247 248 248 248 248 248 247 245 245 244 243 242 242 241 241 239 237 238 240 240 240 241 240 241 242 242 242 243 243
238 239 239 241 241 242 240 239 243 243 242 242 242 240 239 241 244 245 244 244 244 246 246 247 246 245 246 246 245 244 245 243 242 247 250 249 247 247 242 241 242 243 242 242 243 243 242 242 242 242 242 243 243 244

GFSWCAN_sfc_thetae_063.txt.gz
Theta_e
293 293 293 293 293 293 293 294 294 295 296 297 298 300 301 303 303 300 295 298 293 287 288 289 289 287 287 287 283 284 284 283 282 280 279 279 278 280 279 280 279 279 279 280 282 278 276 293 293 287 289 291 291 291
292 292 293 293 293 293 293 293 294 294 294 296 297 298 297 302 301 302 291 297 298 289 288 293 292 293 292 292 289 286 286 284 286 282 283 283 279 281 280 275 284 277 281 280 282 283 293 294 294 297 293 290 290 290
292 292 292 292 292 292 293 293 293 294 294 295 296 297 298 298 301 301 292 294 293 285 286 286 286 291 293 293 295 286 287 288 286 290 286 283 278 282 277 278 281 284 287 283 283 286 288 290 293 293 294 294 295 295
293 292 292 292 292 292 292 292 293 293 293 294 294 296 297 296 300 301 290 294 292 287 282 283 290 289 293 293 292 292 289 290 289 289 284 282 279 285 279 281 280 283 284 282 282 285 287 290 292 291 292 293 292 293
293 292 292 292 292 292 292 292 292 292 293 293 294 295 296 295 298 299 292 293 295 288 281 282 284 289 290 291 290 290 289 288 286 282 281 279 283 282 282 282 279 283 281 279 279 286 286 287 289 290 289 290 291 290
292 292 292 292 292 292 292 292 292 292 292 293 293 295 296 295 298 295 283 291 295 292 282 277 284 284 286 287 287 287 287 286 286 282 280 283 285 281 277 276 282 284 286 286 283 288 289 288 289 290 289 290 290 287
291 292 292 292 292 292 292 292 291 292 292 292 293 294 296 293 296 287 284 289 296 292 283 276 277 280 286 286 286 285 286 285 284 281 281 281 281 282 278 273 281 284 285 286 287 287 285 287 286 289 289 288 286 283
289 290 291 291 291 291 291 291 292 292 292 293 293 295 295 293 297 287 290 296 295 287 284 277 274 277 283 280 279 284 281 282 281 281 282 279 281 281 274 279 281 283 284 284 285 286 286 288 284 283 284 282 281 282
289 289 290 290 291 291 291 291 292 293 292 293 294 294 290 291 284 285 295 297 290 285 277 277 274 273 281 280 282 281 282 276 282 278 278 280 277 274 278 280 281 275 274 271 271 273 276 276 278 280 280 280 279 281
290 290 291 291 291 292 292 292 292 292 292 293 290 285 280 284 293 293 286 282 282 280 280 277 280 273 280 279 278 279 280 276 274 277 281 277 275 280 269 268 267 266 266 266 266 271 267 268 270 274 276 275 274 275
290 291 291 290 291 291 291 293 293 293 293 286 281 281 286 294 286 282 277 276 276 274 278 277 280 274 280 276 276 279 276 277 271 276 275 275 274 273 263 263 264 264 263 264 264 265 266 266 266 267 269 270 269 269
291 291 290 291 290 291 291 293 293 289 285 285 285 286 285 281 278 274 272 273 273 272 274 276 277 279 278 281 278 276 274 274 269 277 274 270 273 259 258 258 259 260 260 260 262 262 263 263 263 263 265 264 264 264
291 290 291 293 293 294 293 292 292 292 291 287 282 277 277 273 270 269 266 268 269 272 274 276 274 277 278 280 277 275 271 270 274 270 270 272 258 258 255 256 256 258 258 259 260 261 261 260 260 259 259 261 262 261
291 291 291 292 294 293 293 289 290 288 285 278 275 268 271 270 272 270 273 273 268 274 276 278 275 276 277 275 276 270 274 272 269 267 269 262 255 254 254 256 255 254 255 256 257 258 259 259 258 257 258 259 259 258
291 291 290 290 290 289 287 284 281 273 273 270 273 267 264 259 259 258 262 265 261 267 276 275 276 277 275 273 274 273 268 267 270 269 263 257 254 254 254 254 254 254 255 255 256 256 257 257 257 256 257 258 259 259
289 287 286 289 289 288 284 278 271 271 262 261 256 262 260 264 260 260 261 259 261 266 269 274 274 272 272 273 271 269 269 267 269 259 256 255 254 253 253 254 255 255 255 255 256 256 256 256 256 256 256 256 256 257
286 283 286 284 282 281 280 270 266 260 258 257 254 254 255 256 255 254 257 257 260 265 270 272 269 269 270 268 267 266 269 260 256 255 255 254 253 253 253 253 254 255 255 256 256 256 256 257 257 257 255 256 256 256
276 281 283 283 278 274 267 267 262 259 254 255 254 252 253 254 254 254 255 257 260 262 265 268 268 267 267 266 268 258 255 255 255 255 255 254 254 253 254 254 254 255 255 255 255 256 257 257 257 256 257 257 256 255
278 278 280 279 276 269 264 262 263 255 254 255 255 255 254 253 254 254 255 256 257 258 262 263 266 267 264 254 254 252 253 254 254 255 255 253 253 253 253 254 255 254 254 254 254 254 254 254 255 256 256 256 254 255
276 277 277 275 273 266 260 259 263 258 255 254 256 254 253 252 253 253 253 254 255 256 256 256 254 250 252 251 252 252 253 253 254 253 254 254 255 254 253 254 255 255 255 254 254 255 254 253 253 253 253 254 253 252
270 270 271 268 263 261 258 258 257 257 256 254 256 255 252 253 251 251 251 252 253 249 249 248 249 249 249 250 251 251 252 253 254 255 254 253 254 254 254 254 254 255 254 253 253 252 252 251 252 253 252 252 252 252
264 268 262 265 261 259 257 256 257 258 255 254 254 253 251 252 250 249 251 250 248 247 248 249 249 249 249 249 249 250 250 250 252 254 254 254 253 253 252 253 253 251 251 252 252 251 251 252 252 252 252 251 252 251
262 262 257 256 256 255 252 257 255 255 253 252 253 251 249 249 250 253 247 247 247 249 248 248 248 246 248 248 247 248 248 250 252 252 252 252 252 252 252 252 253 252 251 250 252 251 251 251 251 251 252 251 251 251
257 250 248 247 250 248 250 249 253 253 252 251 251 249 248 249 251 249 247 246 248 249 249 247 249 249 249 247 249 248 249 251 251 251 252 251 250 249 250 250 250 250 250 251 251 251 250 250 250 250 249 249 249 248
255 242 246 244 246 247 246 246 247 250 247 247 248 247 247 249 248 247 246 246 247 247 248 249 249 250 249 248 249 249 249 252 251 250 250 252 250 250 250 250 249 248 249 250 250 250 249 248 248 247 247 247 246 246
241 240 242 241 243 244 242 244 243 243 245 245 244 246 247 248 247 248 246 247 247 247 247 248 248 249 249 250 250 250 249 250 252 251 250 252 252 253 251 251 250 249 248 248 248 248 247 247 245 244 245 246 245 244
241 240 242 243 243 244 242 242 243 244 242 243 243 244 246 247 247 246 247 248 248 248 249 249 249 250 250 249 249 249 249 250 250 251 251 250 250 250 251 251 250 250 246 246 245 245 245 244 244 245 244 245 245 245
242 242 240 241 241 241 239 240 240 240 241 243 242 243 243 245 245 246 247 248 247 248 248 249 249 251 250 250 250 249 249 249 249 249 249 249 249 249 248 248 248 250 247 246 246 245 243 243 243 244 244 244 245 246
242 242 243 237 239 241 240 240 240 242 243 242 242 243 243 245 245 245 247 247 247 247 246 246 248 249 249 249 249 249 250 250 250 249 250 252 251 250 249 248 248 247 246 245 246 250 248 246 245 246 246 246 246 246
241 242 241 238 238 240 242 242 242 242 241 243 243 244 245 245 246 247 246 245 245 245 246 246 247 248 249 249 250 249 250 250 250 251 251 252 251 249 248 248 247 246 245 242 243 244 247 247 245 243 244 244 245 245
243 242 242 243 242 244 243 242 242 241 242 242 242 242 244 244 246 247 247 247 246 244 244 244 243 245 246 249 249 250 250 250 250 250 250 249 249 248 247 246 246 244 242 242 242 242 243 243 243 242 242 242 243 244
242 239 241 241 242 242 242 242 243 242 243 242 242 242 243 244 246 249 250 248 245 244 245 245 244 246 247 249 251 251 251 250 249 249 248 248 247 247 246 245 243 242 242 242 243 243 242 241 242 243 243 243 244 244
240 242 241 243 242 242 242 240 243 244 243 243 243 241 241 242 246 249 247 247 247 248 247 247 248 248 248 248 249 250 249 249 248 250 252 251 249 248 246 244 244 243 243 243 244 244 243 243 243 243 243 244 244 245

GFSWCAN_sfc_thetae_069.txt.gz
Theta_e
292 293 293 293 294 294 294 294 295 295 295 295 296 296 297 298 299 297 296 298 291 285 281 286 287 283 282 281 276 278 279 280 278 276 275 273 267 273 268 272 275 274 274 270 277 274 272 284 282 281 284 284 287 288
293 293 292 293 293 293 293 294 294 294 295 295 295 295 296 297 297 298 291 298 297 288 283 288 289 291 289 289 282 281 279 275 280 273 272 271 268 268 270 266 277 270 276 272 276 275 283 283 283 287 291 286 285 287
292 292 293 293 293 293 293 293 294 294 294 294 295 295 295 296 296 296 292 294 294 286 285 283 285 288 291 291 292 282 284 284 282 282 275 272 269 274 267 268 271 276 280 275 275 278 279 282 284 285 287 286 286 288
291 292 292 292 293 293 293 293 293 294 294 294 295 294 294 295 295 295 291 293 291 285 282 281 287 287 289 290 289 289 287 287 285 281 275 271 267 277 272 275 274 276 278 274 276 279 280 282 282 284 284 283 283 283
291 291 292 292 292 292 292 293 293 293 294 294 294 294 294 294 295 293 292 294 294 286 280 275 281 286 288 288 287 287 287 284 280 280 277 270 272 273 269 273 270 278 276 274 273 279 279 280 282 282 282 282 283 282
290 291 291 291 291 291 292 292 292 293 293 293 293 293 293 294 295 289 283 291 293 292 281 275 281 279 283 287 285 285 285 280 280 277 272 271 278 276 264 260 278 280 279 281 280 282 281 282 283 281 281 281 282 281
291 291 291 291 291 291 291 292 292 293 294 293 293 293 294 294 290 284 283 283 294 292 282 275 276 280 285 284 281 282 283 279 280 276 273 275 277 275 263 266 278 277 279 279 280 278 278 279 278 276 278 278 278 278
291 290 290 291 291 291 291 292 293 293 293 293 293 293 293 294 292 286 289 294 293 287 283 275 272 278 285 279 278 283 280 281 279 276 271 273 275 271 265 275 279 277 277 278 273 271 272 273 275 273 272 272 271 272
291 291 290 290 291 290 291 292 293 293 293 293 293 293 289 287 282 281 292 293 292 285 278 273 272 270 282 279 280 280 281 275 277 271 274 273 266 268 274 277 276 268 269 267 266 267 267 267 268 267 267 267 266 267
293 292 291 290 290 290 290 291 292 292 292 293 288 282 278 279 291 290 282 282 282 282 280 275 272 270 280 276 275 275 276 272 266 270 276 272 266 276 269 265 265 264 263 263 262 264 261 260 263 264 263 264 264 264
291 292 292 291 291 291 291 291 292 292 292 285 280 278 279 290 283 277 275 275 277 273 277 277 277 274 279 273 271 277 271 273 268 268 269 262 263 274 262 261 262 261 261 261 260 261 261 261 261 261 260 260 260 260
290 290 292 291 292 291 291 291 291 288 281 284 282 284 282 278 277 272 273 275 273 271 274 275 276 277 278 280 275 276 272 270 264 265 266 260 268 259 259 258 258 257 254 254 255 256 258 260 259 258 257 256 256 257
290 289 290 291 292 293 292 292 292 291 290 286 281 276 274 274 270 267 266 268 269 273 275 276 274 276 277 279 275 273 268 264 268 267 265 265 258 255 253 254 253 253 252 251 251 252 253 254 254 252 253 253 254 254
289 289 288 289 291 293 292 292 293 291 283 277 274 269 270 268 270 262 268 267 270 275 277 277 269 274 276 272 272 265 267 266 258 257 260 259 254 252 251 251 249 250 250 252 251 251 252 252 251 250 249 251 253 253
288 287 287 287 287 289 293 293 285 269 268 266 270 265 262 260 257 259 257 265 266 278 276 269 272 274 267 269 270 267 262 259 261 261 261 253 251 251 250 249 248 248 249 248 248 248 251 251 250 250 250 251 253 253
286 283 281 287 284 285 282 276 268 267 261 258 254 260 257 261 259 258 258 262 261 268 273 273 270 270 269 270 267 261 261 259 263 254 249 250 248 247 246 246 247 246 246 247 247 249 251 250 251 251 251 253 253 253
280 273 282 284 281 278 278 267 264 259 257 256 252 254 253 255 253 254 255 256 259 264 266 269 264 268 271 266 259 259 261 255 247 247 248 247 248 246 245 244 245 245 245 245 246 248 249 249 251 250 250 251 252 253
269 274 281 281 274 270 264 264 260 257 253 254 253 252 254 253 254 253 254 257 259 262 266 265 267 260 260 259 256 253 249 246 248 249 248 245 244 243 245 245 244 244 245 245 245 245 246 247 249 250 251 252 252 253
271 276 279 278 272 261 259 259 260 253 254 255 256 256 255 254 255 255 255 255 257 258 262 265 265 260 256 251 249 245 250 247 249 249 247 244 246 244 244 244 245 245 245 244 244 245 245 245 247 249 251 251 251 252
277 276 276 274 269 259 255 255 258 255 251 253 254 252 252 252 253 253 254 254 256 254 250 249 247 245 247 247 246 245 245 247 251 247 246 247 246 243 245 246 247 245 244 244 245 247 245 247 249 250 250 251 251 252
268 268 270 263 257 256 254 253 253 254 253 252 253 253 253 253 250 248 248 252 249 246 245 242 241 242 239 239 240 241 246 247 245 246 246 245 246 247 244 244 244 244 244 243 244 246 248 248 250 251 251 251 252 252
260 269 257 262 256 252 252 253 252 253 252 249 251 251 248 248 247 247 249 246 244 242 241 242 241 239 240 240 240 239 240 240 242 245 248 248 245 245 244 243 244 242 243 244 246 248 249 251 252 251 251 252 253 253
261 261 255 253 252 251 247 250 248 247 247 248 247 246 245 244 246 251 245 243 242 244 239 239 239 237 239 238 239 240 239 242 241 241 241 241 240 240 243 242 243 244 243 246 249 250 251 252 252 251 252 252 251 251
256 248 246 246 247 243 244 245 247 245 248 248 248 242 242 241 247 246 240 237 241 241 241 239 238 240 241 240 239 238 240 239 239 240 239 243 243 241 240 241 243 244 247 249 250 251 251 251 251 251 250 249 249 249
253 242 243 240 243 243 241 241 241 244 241 239 244 245 242 241 247 241 242 239 238 238 239 237 238 240 239 237 238 239 239 240 242 242 241 240 239 241 242 243 244 246 248 249 250 250 250 250 250 249 248 248 247 247
239 237 239 235 239 240 237 238 237 237 237 238 238 238 237 240 244 244 240 238 237 238 238 238 239 239 239 239 239 240 241 239 240 241 241 241 243 242 242 244 246 249 249 250 250 250 250 249 248 247 247 246 245 242
238 236 239 239 239 239 238 237 236 238 236 237 235 237 238 243 243 241 239 240 240 238 239 238 239 240 241 239 239 238 238 239 242 244 243 244 246 247 249 250 250 250 249 249 249 248 248 247 246 245 243 239 239 240
238 239 238 236 237 234 234 234 234 235 236 236 236 239 241 242 243 240 241 242 238 238 239 238 239 241 241 242 241 243 245 246 247 248 248 249 248 249 249 249 250 252 249 248 248 246 245 244 243 242 240 240 242 240
237 236 237 236 235 237 235 235 235 235 237 233 237 238 238 239 237 236 239 240 237 238 238 238 240 240 242 244 247 247 248 248 248 248 249 249 248 249 249 250 250 250 249 248 250 251 247 246 246 245 243 243 244 241
236 234 235 233 236 236 237 236 234 233 234 236 236 239 239 238 239 237 237 236 238 238 238 238 239 242 242 242 241 242 243 248 249 250 249 250 251 250 250 250 249 249 249 247 247 247 248 247 245 242 242 240 240 241
235 233 235 235 237 235 234 233 231 232 232 232 231 235 236 236 239 236 241 238 237 234 237 238 238 238 240 242 240 240 243 243 246 248 249 249 250 250 250 250 250 249 248 247 246 245 244 243 241 240 239 240 241 242
233 234 236 238 237 234 232 233 232 233 232 234 234 231 235 236 238 241 241 240 237 237 241 240 239 243 243 244 241 240 246 243 245 248 249 250 250 250 250 249 249 247 246 245 244 243 241 239 240 241 242 241 242 242
233 232 232 235 237 237 234 234 235 236 234 234 235 233 233 236 242 244 244 243 244 245 244 244 244 242 242 243 244 244 247 246 247 254 255 253 252 251 248 247 245 244 243 242 242 242 241 241 242 242 242 243 243 244

GFSWCAN_sfc_thetae_072.txt.gz
Theta_e
292 293 293 293 294 294 294 294 295 295 296 296 296 297 298 298 299 297 294 297 290 282 281 285 286 282 281 280 276 276 281 281 277 279 277 273 267 272 269 273 274 275 274 271 275 274 271 282 280 278 281 283 285 285
291 292 292 293 293 293 294 294 294 294 295 295 296 296 296 297 298 297 291 297 297 287 285 288 289 291 289 287 282 278 279 275 280 276 272 272 269 267 269 267 277 271 276 272 275 276 283 282 283 286 286 283 283 285
291 291 291 292 293 293 293 294 294 294 294 295 295 295 296 296 297 296 291 294 293 285 285 285 284 287 290 290 291 281 278 283 281 282 275 271 270 275 267 268 271 276 279 275 275 278 279 281 282 285 284 286 285 284
290 290 291 291 292 292 293 293 293 294 294 294 294 295 295 295 296 296 290 293 291 285 281 283 286 286 290 290 290 288 287 286 284 279 273 269 269 278 272 276 276 278 279 275 275 279 279 281 282 283 283 283 283 283
290 290 290 291 291 292 292 293 293 293 293 293 294 294 295 295 295 293 289 292 294 286 279 279 279 285 288 289 287 287 287 282 279 279 275 270 270 272 268 273 270 278 277 275 273 279 280 280 282 282 281 280 280 280
290 290 291 291 291 291 292 292 292 293 293 293 293 294 294 295 295 288 281 288 292 292 282 273 282 277 283 287 287 286 286 280 277 276 271 272 278 277 267 263 276 278 280 280 278 279 281 282 281 277 278 278 278 277
290 291 292 292 292 292 292 292 292 292 292 293 293 293 294 294 290 283 281 282 293 292 282 276 275 278 284 284 282 282 283 279 278 273 273 276 278 278 267 266 277 277 279 278 278 278 277 278 277 276 275 275 274 273
291 292 292 292 291 291 291 292 292 292 292 292 293 293 294 294 292 286 289 293 293 286 283 275 273 277 284 281 280 283 281 282 278 274 272 274 275 270 264 274 279 278 278 278 275 273 274 272 273 272 270 270 268 270
291 291 291 292 292 291 291 291 291 291 292 292 292 293 290 287 281 281 292 293 292 284 277 274 272 271 284 281 280 280 281 276 279 275 275 276 268 269 274 277 276 274 274 273 268 267 267 268 268 267 266 265 264 265
291 288 290 292 292 291 290 291 291 292 292 293 290 284 278 280 291 291 285 281 281 282 280 274 273 272 281 278 276 274 277 274 271 273 277 274 267 277 275 268 269 268 266 265 264 265 260 260 263 264 263 263 263 262
290 290 290 290 291 291 290 291 291 291 293 286 281 278 278 291 282 280 275 275 274 274 277 277 275 271 278 271 271 276 273 273 268 271 268 265 262 275 266 264 264 264 263 262 261 262 261 260 260 260 260 259 259 257
290 290 290 290 291 292 290 290 291 288 283 284 283 282 282 278 276 273 271 270 265 268 275 274 273 279 277 280 275 275 273 273 266 269 265 264 268 264 263 261 259 259 258 256 255 256 258 259 258 257 256 255 254 254
289 289 288 289 289 292 292 291 291 291 290 285 280 276 275 274 269 267 260 259 264 267 272 271 275 277 278 279 276 274 270 269 270 268 263 265 261 257 255 256 253 253 252 251 250 250 252 253 252 251 251 251 251 251
288 289 287 288 287 291 292 292 292 290 282 275 274 269 269 266 259 267 262 269 268 274 274 277 273 275 276 273 273 268 269 270 265 264 261 263 258 256 253 252 252 251 251 252 250 251 251 251 250 248 247 247 248 249
286 286 285 286 285 289 293 292 290 268 268 269 270 266 259 255 251 251 257 261 263 269 278 275 270 274 272 271 272 268 265 265 266 265 265 256 254 253 251 250 249 249 249 249 248 248 250 250 249 248 247 247 247 248
283 280 279 285 283 286 293 283 270 266 260 259 255 255 254 254 253 251 254 257 262 268 279 276 272 270 269 270 267 265 263 262 265 261 251 253 252 250 249 248 248 247 247 246 245 247 249 248 248 247 245 246 247 248
279 273 282 282 281 278 278 267 264 258 257 252 247 248 247 247 253 255 255 258 260 261 273 271 268 268 272 266 260 259 263 260 249 248 248 249 250 248 247 247 246 245 245 244 244 245 246 246 245 246 246 247 247 248
265 274 281 280 273 271 265 264 259 254 249 252 252 252 254 251 248 254 255 257 257 265 268 268 270 267 265 264 263 255 249 248 250 251 251 248 245 244 246 247 243 244 244 243 243 243 243 246 246 246 246 247 249 250
273 276 278 277 272 264 262 259 259 253 252 252 254 255 255 254 256 256 255 256 258 260 264 264 265 259 254 250 249 249 252 251 252 251 249 247 248 245 244 244 245 244 244 242 242 243 243 243 245 246 247 248 248 249
276 276 276 273 269 261 258 256 261 257 253 254 255 254 254 254 255 254 254 254 257 257 252 253 250 247 249 249 248 252 251 253 251 248 246 247 245 242 244 245 245 243 243 242 242 245 244 245 246 246 247 247 247 247
267 268 269 262 258 257 255 255 255 256 255 254 253 254 255 254 253 251 251 252 251 247 248 246 246 246 246 246 245 247 248 251 248 249 247 245 244 245 243 242 243 242 243 242 244 244 244 244 246 248 247 247 248 249
260 268 257 261 257 254 253 253 254 254 253 250 252 251 249 250 249 250 251 249 246 245 245 245 244 244 246 244 243 242 242 240 241 245 248 248 246 245 244 242 245 241 241 242 242 243 244 246 248 249 249 250 252 252
261 261 255 253 253 252 248 252 250 249 250 249 248 249 247 246 247 251 245 244 244 245 243 242 241 240 241 240 240 240 239 241 241 240 240 239 239 238 242 240 241 243 242 243 244 245 246 251 251 250 251 252 251 251
255 247 246 245 247 243 245 245 247 246 247 246 245 244 243 242 246 246 242 239 242 242 241 238 238 241 241 241 239 238 238 237 238 238 237 242 242 240 239 239 239 240 243 245 246 246 247 247 251 250 250 250 250 250
252 241 243 240 242 243 241 241 242 245 242 243 246 244 243 239 244 242 241 239 237 237 238 235 237 238 239 236 237 237 238 238 241 240 239 238 238 240 241 241 242 243 243 245 244 245 245 247 248 249 250 249 249 249
239 236 238 233 238 240 237 239 238 238 238 243 242 242 242 245 249 246 241 238 237 237 237 238 239 239 239 237 239 240 240 237 238 240 240 240 242 242 240 241 242 245 244 243 245 246 248 249 249 249 249 249 248 247
239 236 238 237 237 237 237 236 235 238 236 238 236 241 243 248 247 243 239 239 239 238 237 237 238 239 239 239 238 237 236 237 241 242 240 241 242 243 245 246 247 249 248 247 247 248 249 249 248 248 247 247 246 245
237 236 237 236 236 233 234 233 234 235 235 236 235 239 242 243 244 241 241 241 237 236 237 236 237 238 238 239 238 239 240 241 243 245 246 247 248 249 249 250 250 253 250 250 249 248 247 248 248 247 246 246 246 245
237 235 236 236 235 237 235 235 235 235 237 233 237 238 238 239 237 236 239 239 234 237 237 238 239 237 239 239 241 241 242 243 245 247 248 249 249 250 250 250 250 250 249 249 251 251 248 247 247 247 247 246 246 244
236 233 236 234 237 237 237 235 234 232 232 235 235 238 238 238 238 235 235 235 238 238 237 236 236 238 239 240 240 241 240 242 245 247 247 248 251 250 250 250 250 250 250 249 249 249 251 250 248 246 246 245 244 243
233 232 235 234 237 234 233 231 230 231 231 231 229 234 235 235 238 235 239 237 236 233 236 237 236 236 241 239 238 239 243 243 246 248 249 249 250 250 250 251 251 250 249 249 248 247 247 246 245 245 244 244 243 243
233 233 237 239 238 234 231 231 230 232 231 232 234 230 234 235 237 240 240 238 236 236 241 239 238 243 243 243 241 242 246 241 241 245 246 249 250 251 251 251 250 248 248 247 247 247 246 245 244 244 244 243 242 242
232 231 230 234 237 237 234 234 234 236 234 233 234 231 231 235 240 243 242 242 243 243 243 243 244 240 241 243 244 244 246 244 244 252 254 254 253 252 250 249 248 247 246 246 246 246 245 244 243 243 242 242 243 244

GFSWCAN_sfc_thetae_075.txt.gz
Theta_e
292 292 292 293 293 293 294 294 295 295 296 297 297 297 298 299 300 297 294 296 289 281 281 284 285 281 280 279 276 276 281 282 278 278 276 273 270 272 269 272 276 279 276 275 276 274 271 281 280 277 280 282 284 284
292 291 291 292 292 293 293 294 294 295 295 296 296 297 297 298 298 299 291 296 296 286 286 287 287 289 289 287 282 275 279 276 281 276 274 273 268 268 269 268 277 274 278 274 277 277 282 282 282 284 284 283 283 283
290 291 291 291 291 291 292 293 294 294 294 295 295 296 296 297 297 297 291 294 292 285 285 285 282 288 289 289 290 280 276 283 281 282 275 270 269 274 268 269 271 276 279 276 277 280 281 282 283 284 285 285 285 284
290 290 290 291 291 291 291 292 293 294 294 294 295 295 295 296 296 296 290 293 290 285 280 278 285 285 288 289 288 288 286 285 283 279 272 270 269 278 272 275 275 276 278 275 275 278 280 281 282 284 284 283 281 281
289 290 290 290 290 291 291 292 292 293 294 294 294 295 295 295 295 293 291 292 293 286 278 275 280 283 286 288 286 286 286 282 277 275 270 270 272 273 269 274 272 278 277 276 273 280 280 280 282 282 281 281 280 280
289 289 290 290 291 291 291 291 292 292 293 293 294 294 294 295 295 289 282 289 293 292 282 275 279 278 282 285 285 286 286 280 278 276 272 272 278 277 267 266 278 279 280 281 279 281 281 281 281 279 280 279 277 276
288 288 289 290 292 292 292 292 292 292 293 293 293 294 294 294 290 284 281 282 293 290 282 276 273 278 283 281 283 284 284 279 280 275 273 276 277 276 267 268 276 279 280 280 280 279 277 279 278 277 277 275 273 272
288 289 290 291 291 292 292 292 292 292 292 293 293 293 293 294 292 286 289 292 293 285 280 275 273 272 282 281 280 284 283 283 281 279 272 274 276 273 267 278 278 278 277 277 277 276 277 274 273 272 271 270 267 269
289 289 290 291 292 292 292 293 292 292 292 292 292 292 289 287 283 284 293 294 291 283 275 269 268 271 283 281 281 281 282 278 280 277 276 278 272 272 276 278 277 275 276 275 271 268 268 269 270 268 266 265 264 265
290 291 291 290 291 291 292 293 292 292 292 292 288 282 278 282 291 291 286 282 281 281 280 270 266 270 281 278 277 274 276 274 272 275 278 275 271 280 276 274 274 275 274 270 266 264 260 262 266 265 263 263 263 262
290 290 290 289 289 290 292 293 292 291 292 285 280 279 278 292 283 279 275 275 273 273 276 277 275 271 279 273 273 277 272 274 270 272 274 271 268 277 277 270 271 272 270 267 266 264 264 264 264 263 261 259 258 256
289 288 290 289 289 290 292 291 291 288 284 284 284 284 285 279 276 273 270 270 272 270 274 272 274 277 278 279 275 275 272 273 268 273 270 266 270 273 271 268 264 264 263 259 258 261 260 261 259 258 256 255 253 253
288 287 288 288 288 288 291 291 291 290 289 285 280 276 275 273 269 267 265 265 267 264 268 270 272 276 276 279 276 274 270 269 272 269 268 265 267 262 265 260 256 255 254 254 252 253 254 254 252 251 250 249 248 248
287 286 286 286 287 287 290 291 291 288 282 277 273 269 267 267 261 266 263 263 266 267 267 274 268 272 276 273 274 269 267 268 268 266 263 264 267 265 258 257 256 254 254 254 253 253 252 252 250 247 247 246 246 247
286 284 284 284 285 286 291 291 284 268 266 269 271 266 267 256 251 248 248 257 257 259 270 267 268 274 268 272 272 268 264 263 265 264 265 268 255 256 254 253 253 252 252 251 249 250 251 251 250 248 245 244 245 245
284 279 278 284 284 288 287 277 269 263 258 259 257 255 251 254 250 249 247 251 256 261 273 270 267 269 269 270 267 266 265 264 265 263 254 252 253 253 252 252 252 252 252 250 248 248 250 249 249 247 243 244 245 245
279 270 281 282 281 280 281 267 264 255 251 249 246 244 246 246 247 246 248 253 259 264 270 269 266 268 272 267 266 267 266 265 247 246 248 250 253 253 252 252 250 247 247 247 244 245 245 244 243 244 246 245 243 244
267 274 280 279 274 272 264 263 257 253 251 251 249 247 247 247 247 249 251 256 256 261 266 267 268 268 267 263 258 257 246 245 247 247 249 251 250 248 251 250 248 247 246 244 245 242 243 244 245 245 243 244 244 244
275 276 277 276 273 265 262 259 258 250 249 248 252 253 251 250 253 255 254 256 258 260 260 267 268 265 266 255 251 247 250 249 251 251 249 249 250 249 248 248 248 247 246 242 242 244 243 242 244 244 244 245 245 245
276 276 275 273 270 264 259 257 260 256 251 252 252 252 253 253 254 254 254 254 257 258 255 257 255 245 246 248 248 252 253 253 252 251 250 250 249 248 248 248 248 246 244 242 242 244 242 244 243 243 243 244 244 245
267 267 269 263 259 258 256 256 255 255 255 252 252 254 255 255 253 252 251 253 252 247 249 247 247 248 247 247 248 252 252 254 253 254 252 249 248 249 247 246 246 244 243 242 243 242 242 243 243 244 244 244 244 245
260 268 257 261 257 254 253 252 254 255 255 251 252 253 251 253 251 250 251 249 246 245 245 247 247 247 248 247 245 245 246 247 247 249 250 249 247 247 243 243 245 241 241 242 242 243 241 242 244 245 244 245 248 249
261 261 255 253 254 252 249 252 252 251 255 252 253 254 251 250 250 252 246 246 246 246 245 245 245 244 245 245 245 246 244 247 246 243 243 243 240 239 243 240 241 243 241 241 240 242 243 247 248 246 247 248 248 250
255 246 246 245 247 244 244 245 246 246 247 246 249 251 249 247 247 252 247 244 245 246 246 244 244 247 247 246 245 240 240 238 240 240 237 243 243 240 237 238 237 239 242 242 244 243 244 244 248 246 246 247 248 249
253 241 243 240 242 243 242 242 244 245 243 241 244 245 245 241 248 248 248 246 245 244 244 241 242 241 240 237 239 238 237 237 241 241 239 237 238 239 241 240 240 240 240 244 242 242 242 242 244 245 246 247 249 249
240 236 238 232 238 240 237 240 238 240 239 245 243 241 239 244 250 245 242 239 237 239 239 239 239 239 239 238 239 240 240 235 238 241 240 239 241 242 240 241 242 244 242 242 243 242 242 244 244 246 249 250 250 249
240 237 237 235 236 236 237 235 235 237 238 240 240 242 245 250 247 244 240 240 240 238 238 237 238 239 240 239 238 236 235 235 240 242 240 240 241 240 243 243 243 246 244 244 244 244 246 247 247 249 249 249 248 248
236 235 238 236 235 232 233 233 234 235 235 236 235 241 244 245 246 243 243 243 238 236 236 235 236 237 237 238 237 238 238 238 239 241 241 242 241 242 242 243 246 252 250 250 250 249 249 248 248 248 249 248 248 249
237 234 235 237 235 237 235 235 235 234 237 233 237 238 239 239 237 236 238 238 233 236 237 237 239 235 237 237 237 237 238 240 242 242 242 243 244 246 247 248 250 250 250 250 252 251 248 249 249 249 249 249 249 248
237 232 236 234 237 238 237 235 234 232 231 234 233 238 238 237 237 234 234 234 237 238 236 235 235 237 238 239 239 240 238 239 243 246 244 244 245 246 248 249 249 250 249 248 249 250 252 251 251 249 249 248 247 247
232 231 235 235 237 235 232 229 228 229 230 230 228 233 235 235 238 235 236 235 234 232 235 237 236 233 237 237 238 240 245 243 244 245 244 243 243 243 244 248 250 251 250 250 249 249 248 248 248 247 247 247 247 247
234 232 237 239 238 233 230 230 229 232 230 232 234 228 234 235 238 241 238 236 235 235 239 237 237 242 241 241 240 241 246 241 242 244 244 245 244 245 247 248 250 250 249 249 249 248 248 247 247 247 247 247 246 246
231 230 230 234 237 237 234 233 234 236 233 233 234 231 231 235 240 243 241 239 240 241 241 242 242 240 240 241 243 243 245 243 243 250 253 252 251 250 247 248 248 248 248 248 248 247 247 246 246 246 246 246 245 245

GFSWCAN_sfc_thetae_078.txt.gz
Theta_e
292 292 292 292 293 293 293 294 294 295 295 296 297 297 298 299 300 297 294 296 289 283 282 284 284 281 280 279 276 277 282 281 279 279 275 274 269 272 271 273 279 281 279 278 274 273 271 281 280 278 280 282 283 284
292 292 292 292 291 292 292 293 293 294 295 295 296 297 297 298 298 299 291 296 295 286 286 287 286 287 287 286 282 276 278 276 282 277 273 272 268 269 267 268 277 275 280 277 280 279 282 281 282 283 285 284 284 284
290 291 291 291 291 291 291 291 292 293 294 295 295 296 297 297 298 297 290 294 291 284 284 285 282 287 288 288 289 281 276 282 282 281 276 272 270 274 269 270 271 276 279 277 278 278 280 281 282 284 284 284 284 283
290 290 290 290 290 291 291 291 291 292 293 294 295 295 296 296 297 296 290 293 290 285 278 277 285 284 287 288 287 287 285 283 282 279 273 270 270 278 272 275 275 277 279 275 275 278 280 281 282 284 283 283 282 281
289 289 290 290 290 290 291 291 291 291 292 293 294 295 295 296 296 294 292 293 293 285 278 272 279 283 285 286 286 286 285 282 276 274 276 273 272 273 269 273 271 278 277 276 274 280 281 281 283 283 281 281 281 281
288 289 289 289 290 290 291 291 291 291 292 292 293 294 295 295 295 289 282 290 292 290 281 272 280 276 280 283 284 284 284 280 278 276 272 271 278 277 268 266 277 279 280 281 279 282 282 282 283 281 281 280 280 279
288 288 288 288 289 290 291 291 292 292 292 292 293 294 294 295 291 284 281 283 293 291 280 276 271 278 282 278 276 278 281 279 279 274 274 276 277 275 266 268 277 279 280 280 281 280 278 279 279 279 279 278 274 273
288 289 288 289 289 290 290 291 291 293 292 292 292 293 294 294 293 286 289 292 293 284 277 274 273 275 280 277 277 283 280 280 280 281 272 277 277 275 271 278 279 279 279 278 278 278 278 277 276 275 273 271 269 270
290 290 290 290 290 290 290 293 293 293 292 292 292 293 290 287 283 284 293 294 292 282 275 273 268 267 276 276 280 282 281 277 281 279 276 277 274 273 277 280 278 276 277 277 272 270 270 271 272 270 269 266 267 267
290 289 289 290 291 291 291 291 293 293 292 292 288 283 279 283 292 291 286 282 282 282 273 267 261 265 278 274 275 275 277 278 272 276 278 275 277 280 279 276 277 276 276 273 268 267 262 264 268 267 266 265 265 263
289 288 288 288 288 289 289 290 291 292 292 286 280 278 282 291 281 280 276 275 276 273 275 266 267 266 274 270 272 276 269 274 271 270 273 270 271 278 282 272 275 276 274 274 277 277 275 272 269 267 263 262 260 258
288 288 288 289 288 289 289 290 293 290 284 285 283 283 281 278 275 273 271 273 273 270 268 271 269 273 274 274 272 275 269 271 269 275 272 269 275 279 276 274 269 272 273 267 263 266 264 264 262 263 260 257 255 254
287 288 287 287 287 288 288 291 292 290 289 285 280 277 276 275 269 267 266 266 268 263 270 270 269 273 278 278 275 273 271 269 273 270 268 268 274 265 272 271 264 258 263 259 256 257 258 256 255 254 253 250 252 249
286 287 285 285 286 287 287 289 292 289 283 276 273 269 270 267 266 267 264 265 266 266 267 270 273 269 272 273 275 269 269 267 267 266 267 265 268 270 270 262 260 260 260 259 256 255 254 254 252 248 251 250 249 248
286 284 283 283 286 286 287 290 287 271 273 272 271 267 268 264 257 249 250 258 257 262 273 266 266 273 272 271 273 268 265 264 265 263 266 268 262 261 258 255 255 257 257 255 254 254 253 253 252 249 245 245 245 245
284 278 277 284 285 289 289 280 269 266 258 262 260 259 251 254 252 249 248 257 257 265 265 266 263 263 262 267 267 265 265 264 266 263 256 252 252 252 249 252 253 253 253 251 251 252 252 250 251 249 243 243 244 246
279 268 280 282 282 279 279 268 264 257 257 256 254 250 252 251 251 247 247 253 258 263 263 262 263 263 265 263 259 262 263 265 259 247 247 247 248 247 248 250 250 252 252 251 251 251 248 246 247 247 247 244 242 242
268 273 279 280 276 272 264 263 256 253 250 248 252 250 247 247 249 248 248 253 258 258 260 263 265 261 262 261 260 261 248 244 246 245 247 245 245 247 249 249 249 250 249 248 249 249 249 248 249 248 245 242 244 242
275 275 277 277 274 266 262 259 257 251 249 246 250 251 248 248 251 252 250 253 254 256 256 260 262 259 261 251 249 244 245 246 247 248 247 245 246 247 250 250 250 250 248 246 248 248 245 244 246 246 246 245 246 243
276 275 275 273 272 265 259 258 258 254 248 252 251 250 252 252 253 253 253 254 257 257 261 260 254 245 245 245 247 250 253 252 251 248 248 249 249 249 249 248 250 250 248 246 245 245 245 245 242 241 242 243 245 244
267 267 269 264 260 259 255 256 254 254 253 251 252 254 254 254 251 250 250 254 252 248 250 243 242 243 245 245 247 248 251 254 255 255 253 250 250 251 251 250 250 249 248 248 247 245 243 244 244 241 242 242 241 242
261 268 258 262 259 256 254 253 254 255 254 251 252 253 250 250 251 250 252 250 247 245 244 243 244 246 248 247 246 246 246 250 251 253 252 252 250 250 249 249 250 248 247 245 245 245 241 240 241 241 242 242 245 244
261 261 255 254 255 253 250 253 252 251 254 250 251 251 251 252 251 252 247 247 245 245 245 244 245 246 246 247 248 248 247 250 249 250 250 249 247 248 247 245 246 245 242 241 238 240 242 245 246 244 244 245 244 244
255 246 247 246 248 245 246 247 250 251 251 250 253 252 250 248 248 253 249 246 246 247 247 246 246 248 248 249 248 247 245 245 246 245 244 248 247 243 239 238 237 238 241 242 242 241 242 242 246 244 244 243 242 243
252 241 243 240 243 245 244 244 246 248 248 246 250 251 249 245 253 251 251 247 247 247 246 245 246 246 249 247 247 246 244 244 245 242 240 238 239 239 241 239 239 239 239 244 241 241 241 240 242 242 243 242 242 243
240 235 238 232 238 241 238 244 239 240 243 246 245 244 244 249 255 253 250 248 247 247 247 247 248 246 245 243 245 247 244 239 240 243 241 238 240 241 239 241 242 244 242 241 242 240 240 242 241 241 242 243 246 244
240 237 236 235 235 235 237 236 236 238 237 238 237 240 245 251 250 249 247 246 247 246 245 245 246 246 246 245 244 241 237 234 239 241 238 238 240 239 242 242 242 245 242 243 242 242 242 243 242 243 244 243 244 244
236 235 238 236 235 232 234 233 234 235 235 237 234 240 243 245 247 244 244 245 241 240 240 239 240 240 239 238 236 237 238 236 238 239 240 240 238 239 239 240 242 252 243 244 245 245 245 246 246 246 247 247 247 247
236 233 234 237 235 237 235 235 235 234 236 232 236 238 239 239 237 236 239 238 233 236 238 238 239 234 236 236 235 235 235 239 242 242 241 241 242 246 243 242 243 245 245 247 253 252 249 249 249 249 249 249 249 249
236 231 237 235 238 238 237 235 234 231 230 233 233 237 238 237 237 233 233 233 237 238 237 235 234 236 237 237 239 240 237 238 240 242 242 242 244 242 241 243 244 245 245 244 247 248 252 250 250 249 250 249 249 249
232 231 236 236 238 235 232 228 227 228 229 229 227 232 235 234 237 234 235 234 233 231 234 236 234 232 235 236 237 238 242 241 242 243 242 241 241 241 242 243 245 244 245 246 246 247 248 248 248 248 248 248 248 248
234 232 236 240 239 233 229 229 229 231 229 232 233 227 233 235 238 240 238 235 234 235 239 237 236 241 240 242 239 239 245 241 241 244 245 246 246 245 244 244 243 243 245 246 246 246 248 248 248 248 248 247 247 247
231 229 229 234 237 238 234 233 235 237 234 234 234 230 230 235 240 243 240 238 240 240 240 241 242 239 240 241 242 242 245 244 244 249 252 251 249 248 243 243 244 244 245 245 245 246 246 246 247 247 246 246 247 247

GFSWCAN_sfc_thetae_084.txt.gz
Theta_e
291 291 291 293 293 293 293 294 294 295 295 296 297 297 297 298 299 298 294 296 291 286 287 286 287 285 284 285 284 283 286 285 283 283 283 281 281 280 282 283 283 282 281 281 281 281 279 285 283 284 289 285 287 291
290 291 291 292 292 292 293 293 293 294 295 295 295 296 297 297 298 299 292 296 296 288 287 289 289 289 289 289 286 283 284 284 288 285 282 279 278 277 279 279 281 282 286 284 285 285 285 286 286 287 289 288 288 289
289 290 291 291 292 292 292 292 292 293 294 294 295 295 296 297 298 297 293 294 291 285 285 286 286 291 290 290 292 286 283 285 286 285 283 280 280 279 278 278 281 282 283 285 286 285 285 285 286 288 289 289 289 290
287 288 290 291 291 292 292 292 292 292 293 293 294 294 295 296 297 297 293 294 291 285 282 283 287 287 290 290 290 290 287 285 285 286 284 281 281 280 280 281 283 284 283 282 282 280 283 284 286 288 288 288 286 287
288 287 288 289 290 291 291 292 291 291 291 292 292 293 294 295 296 296 295 294 294 288 280 280 282 285 287 288 288 288 288 286 285 282 281 283 280 280 276 279 279 281 281 282 284 284 285 286 286 288 287 286 286 285
287 287 288 288 289 289 291 291 291 291 291 291 291 292 293 294 295 290 283 291 294 292 284 278 283 280 284 286 286 287 287 285 286 285 283 281 281 282 279 278 282 282 283 285 285 286 286 286 288 287 286 285 285 284
287 287 288 288 288 289 290 291 291 291 291 291 291 291 292 293 292 285 284 288 295 292 283 278 278 280 283 283 283 284 285 285 285 283 281 282 280 282 277 278 282 283 284 284 285 284 283 283 284 285 284 284 281 279
286 287 287 288 289 289 289 290 290 291 291 291 291 291 292 292 292 286 290 294 293 285 284 277 276 278 282 281 281 285 283 284 284 284 279 280 279 279 276 281 284 283 283 282 282 282 282 282 282 280 279 278 277 276
286 287 288 288 289 290 290 290 290 290 290 291 291 291 290 288 284 285 293 295 292 285 278 277 274 273 280 280 282 283 284 279 284 281 281 280 278 276 280 282 281 282 281 281 278 275 275 278 280 278 277 275 277 275
286 287 288 290 290 290 290 290 290 289 289 291 288 283 279 283 291 292 287 283 282 282 278 275 272 274 280 279 278 280 281 279 275 279 281 278 279 283 282 283 284 281 282 278 275 273 271 274 276 275 276 277 279 277
286 287 287 290 288 289 289 289 290 290 289 285 281 280 283 291 285 283 278 277 278 275 277 273 273 274 279 275 276 278 276 278 273 276 277 275 276 281 284 283 280 282 281 280 284 285 283 283 279 277 275 275 274 273
286 286 287 288 287 288 289 290 290 287 284 284 281 285 284 280 277 274 273 274 274 272 270 272 273 277 276 278 276 274 274 274 271 277 275 272 276 281 282 283 281 280 280 280 281 283 282 280 281 279 278 275 273 271
285 285 286 287 287 286 286 286 287 288 288 285 281 277 276 274 270 269 267 267 268 270 272 272 273 276 277 277 273 274 271 271 275 273 272 275 276 277 275 273 274 278 279 280 280 281 276 279 272 276 274 268 265 263
284 285 286 285 285 285 286 286 287 287 285 278 275 269 270 268 267 268 268 269 271 272 270 272 273 273 274 274 274 270 272 271 268 267 269 276 275 263 262 263 265 269 273 277 280 279 273 269 265 260 265 263 262 259
284 285 282 281 284 285 287 288 287 281 279 275 272 268 266 265 261 260 256 266 267 273 274 273 272 276 272 270 273 268 266 264 268 268 274 275 263 258 259 259 259 260 262 263 262 262 262 260 260 257 256 259 260 256
284 279 277 283 284 283 283 277 273 269 263 267 266 265 257 263 260 259 257 261 259 269 271 271 269 269 270 271 268 267 265 264 269 270 274 262 257 256 255 255 256 255 257 260 260 260 259 258 257 255 253 254 255 255
278 268 280 282 282 279 277 269 267 260 261 260 255 252 254 256 258 254 253 257 259 266 267 267 265 266 268 265 265 265 266 271 270 268 256 253 253 253 251 251 253 255 255 254 254 255 254 253 252 253 253 252 253 254
268 273 279 281 276 272 265 262 259 258 253 253 257 253 253 252 253 253 253 256 261 264 265 267 267 264 265 264 265 268 265 254 250 251 251 249 249 250 251 252 251 252 253 253 253 252 253 254 255 256 253 251 250 251
274 275 278 279 274 267 264 261 258 252 251 251 254 254 253 252 254 254 253 256 258 260 262 266 269 268 265 257 255 251 249 250 251 251 251 248 248 247 248 251 253 253 253 252 253 254 254 254 256 255 253 253 254 253
277 276 276 274 272 266 261 259 261 256 250 253 253 252 255 255 254 252 253 254 257 260 265 266 258 249 249 248 247 247 248 251 250 252 253 252 251 249 249 251 252 252 253 252 253 252 253 253 253 253 254 255 254 253
268 269 270 266 261 259 256 256 256 256 256 254 253 254 253 251 250 251 252 253 257 249 253 245 245 246 246 246 247 246 247 249 251 252 253 253 252 251 250 250 251 252 252 253 253 253 254 254 252 253 254 254 254 254
261 268 260 264 261 258 256 255 256 258 256 254 255 255 253 252 250 249 250 250 246 245 245 244 245 245 245 246 247 247 248 248 250 252 253 253 251 252 252 251 252 251 252 252 252 252 252 252 252 253 254 252 252 252
261 262 256 256 258 256 253 257 256 255 257 255 255 255 252 253 252 254 252 249 248 248 246 246 246 246 246 249 249 250 249 250 251 252 252 252 252 253 252 252 254 252 251 251 252 253 252 252 252 252 251 251 251 251
255 247 247 247 250 248 252 253 255 255 255 255 255 252 252 251 251 255 253 251 249 249 247 247 247 249 250 250 250 250 249 249 250 250 250 252 251 250 250 250 251 250 251 251 252 251 251 251 251 251 251 250 249 250
252 242 243 242 245 247 249 251 252 254 252 251 252 252 250 248 254 254 253 251 249 249 249 248 249 250 250 251 251 250 248 248 251 251 250 250 249 250 250 250 250 249 249 250 250 250 249 249 250 250 249 249 249 248
240 236 239 234 240 242 240 246 245 246 248 251 247 247 247 250 253 252 251 250 249 248 249 249 249 250 251 249 250 251 248 246 247 251 249 248 248 250 250 251 251 251 248 248 249 248 248 247 247 247 247 247 246 247
242 238 236 235 236 236 238 237 238 243 244 245 242 242 245 249 249 250 250 249 249 247 248 248 248 249 249 249 248 247 245 244 245 245 244 244 245 245 247 249 249 250 246 246 247 247 247 247 247 247 247 247 246 247
236 235 238 237 236 233 235 235 236 237 237 237 236 242 245 245 246 248 247 245 242 241 242 242 242 243 244 244 243 243 245 242 243 242 243 243 242 243 242 243 244 252 246 245 246 246 246 247 247 247 246 247 248 249
236 232 233 237 235 237 236 237 237 236 238 234 237 239 241 241 239 241 242 240 235 238 239 239 242 236 239 238 237 237 238 240 244 244 243 244 245 247 244 243 244 246 246 245 249 249 247 248 247 247 248 249 250 249
236 230 237 235 239 240 237 234 234 230 230 233 232 236 238 238 238 234 233 233 237 238 237 235 234 236 239 238 240 242 237 238 241 244 243 243 245 245 243 243 244 245 246 245 248 248 251 251 250 249 248 247 248 248
232 231 236 235 238 235 232 227 226 227 228 228 226 231 235 235 237 235 235 233 232 230 234 236 235 232 235 235 237 238 243 240 238 241 241 240 241 241 242 244 245 243 243 245 246 245 247 246 245 245 245 246 246 248
232 232 237 241 240 232 228 229 229 231 229 231 233 226 233 235 239 242 238 233 233 235 239 236 235 240 239 240 238 239 243 240 241 243 242 243 243 244 244 245 244 243 244 247 246 246 245 245 245 245 245 245 246 246
230 228 229 234 237 239 234 234 236 238 235 235 235 231 230 235 242 244 240 238 241 241 240 240 240 240 241 241 242 243 244 244 243 248 251 250 250 250 247 245 244 244 244 245 245 245 244 243 244 244 244 245 245 246

GFSWCAN_sfc_thetae_087.txt.gz
Theta_e
290 291 291 292 293 293 293 294 294 295 295 296 297 297 298 298 299 299 295 298 292 287 289 287 289 286 286 288 285 285 286 285 285 284 285 284 284 283 284 285 284 284 283 283 285 283 281 288 287 288 291 287 291 294
289 290 291 292 292 293 293 293 294 294 295 296 296 297 297 298 298 299 292 297 297 289 288 290 291 291 290 290 289 285 286 286 291 286 285 284 282 282 283 280 285 283 288 286 287 288 287 289 288 291 291 290 290 293
288 288 290 291 291 292 292 293 293 294 294 295 295 296 296 297 298 298 294 294 290 285 287 287 288 292 293 291 293 288 287 288 288 287 287 284 282 285 282 283 285 286 286 286 286 287 287 287 288 289 290 291 291 293
287 287 288 290 291 291 292 292 293 293 294 294 294 295 295 296 297 297 294 296 292 285 283 285 289 289 291 292 291 292 289 288 288 289 286 285 285 283 284 284 286 286 286 285 285 282 285 287 288 289 289 290 290 291
286 288 287 288 289 290 292 292 292 292 293 293 294 294 295 295 296 297 296 296 295 289 282 284 285 288 289 290 290 290 290 289 288 286 285 285 283 283 280 281 282 285 286 285 286 287 288 288 289 289 289 288 289 286
286 287 287 287 287 288 289 292 292 292 292 292 292 292 293 294 295 292 284 292 296 293 284 279 286 283 287 288 288 288 289 289 290 288 285 286 284 283 281 281 287 286 287 288 288 289 287 287 290 290 289 288 287 286
285 286 287 287 288 288 288 289 291 292 291 291 291 291 292 293 293 286 285 289 295 294 284 280 281 282 284 286 286 287 287 288 288 287 284 285 282 286 282 280 286 286 286 286 287 286 285 285 286 288 287 286 283 282
285 286 286 287 287 288 289 289 290 291 291 291 291 291 291 292 292 287 290 293 295 287 285 279 278 279 284 282 282 287 284 285 285 285 284 283 281 283 278 284 286 286 285 285 284 285 284 284 284 283 282 281 279 279
285 286 287 288 288 288 289 289 289 290 291 291 291 291 290 288 284 286 292 292 293 287 280 280 276 275 283 283 284 284 285 280 286 282 282 283 281 277 281 283 283 285 283 284 282 279 278 279 282 280 280 279 280 279
285 286 287 288 288 289 290 291 290 291 291 291 289 284 279 285 292 292 287 283 282 284 283 278 282 276 281 281 280 281 283 280 277 281 283 279 280 284 284 284 285 284 285 281 277 276 274 276 278 279 279 281 282 280
285 286 287 287 288 290 290 291 290 291 290 286 282 280 287 292 288 283 278 278 280 276 280 281 280 276 282 277 278 281 279 280 274 278 278 277 277 282 285 285 285 284 284 282 285 286 285 285 284 280 279 280 280 280
285 286 286 287 288 289 290 291 291 288 285 285 285 287 285 282 279 275 274 277 276 274 275 276 277 282 280 282 279 277 276 277 272 280 276 273 279 282 283 284 284 283 282 282 283 284 285 283 284 282 281 280 279 279
285 285 286 287 287 288 289 289 290 290 289 286 282 279 278 277 271 269 268 271 272 275 275 276 275 279 278 280 278 276 273 272 278 274 272 276 278 274 270 270 271 272 276 278 280 281 283 282 278 280 281 280 279 274
284 284 285 285 284 285 285 286 288 288 285 279 276 271 272 270 272 273 275 275 278 278 276 279 275 277 278 276 277 272 275 275 270 268 270 277 279 268 265 266 264 266 265 267 272 273 272 272 271 266 266 269 270 268
283 284 282 282 284 285 285 285 287 282 282 277 276 270 271 273 271 268 269 275 274 280 278 276 276 277 275 274 275 271 268 268 270 270 276 281 268 263 263 262 260 260 260 262 266 266 267 265 265 265 261 263 266 262
282 280 279 282 283 283 282 279 276 274 267 270 270 268 265 272 269 266 267 271 267 278 278 278 274 272 272 273 270 269 268 267 272 276 280 268 262 259 258 257 257 257 258 258 260 261 262 261 261 263 258 259 259 261
279 275 279 281 282 279 278 272 270 263 265 264 261 258 260 263 266 262 261 265 264 274 274 273 269 269 272 269 268 271 270 274 279 270 262 256 257 256 254 254 255 255 256 258 258 258 257 256 256 257 257 256 258 257
274 276 279 281 277 274 267 266 264 263 258 258 261 257 258 257 259 259 259 261 264 270 272 272 273 269 268 266 269 274 272 261 258 257 256 254 253 253 253 254 254 254 255 255 255 255 256 256 258 259 256 254 254 255
276 277 278 279 276 270 266 263 263 258 255 257 258 258 258 257 258 258 258 260 262 263 266 270 270 269 271 263 260 259 256 255 256 256 256 252 252 250 250 252 253 255 254 255 256 257 258 256 259 258 256 257 257 257
276 276 276 274 274 268 263 260 265 260 258 256 258 257 258 257 258 258 259 259 262 265 267 267 263 255 254 253 252 252 252 253 253 255 259 257 255 252 253 252 255 255 255 255 255 255 256 256 256 257 257 258 257 256
270 270 271 268 264 262 258 259 258 258 258 257 257 258 257 257 256 256 257 256 260 254 258 250 251 251 250 249 250 250 250 251 253 253 254 255 256 254 254 254 254 255 255 256 256 256 256 256 255 257 257 257 257 257
266 269 264 267 263 260 258 257 258 259 259 257 258 258 257 257 256 255 255 256 252 249 249 249 249 249 249 250 250 250 250 249 250 252 253 254 255 255 254 254 254 254 254 255 255 255 254 254 255 256 255 254 255 255
263 264 259 259 260 259 254 260 258 257 258 257 258 258 255 255 254 256 254 252 250 250 249 248 248 247 247 249 249 250 249 249 253 253 253 253 254 254 254 254 255 255 254 254 255 255 254 253 254 254 254 254 254 254
257 249 250 250 253 252 256 256 258 258 258 258 258 256 254 253 253 258 256 252 251 251 249 249 249 251 252 251 252 251 250 250 252 253 252 253 253 252 252 253 253 253 252 254 254 254 254 253 253 254 254 253 253 253
255 244 246 245 248 250 252 253 254 256 253 254 256 254 252 251 257 256 255 253 252 251 251 251 251 252 251 253 253 252 249 249 250 252 252 252 252 253 253 253 253 252 252 253 253 253 252 253 253 253 252 252 252 252
243 239 243 242 245 247 245 251 248 247 250 253 250 250 250 253 256 254 252 251 251 250 250 250 249 250 252 251 251 252 250 249 249 252 251 250 251 251 252 253 253 252 251 251 252 252 252 252 251 251 251 250 250 250
246 243 242 240 241 242 244 244 244 248 248 248 246 247 250 255 254 253 252 251 250 249 249 249 249 249 250 250 251 250 249 248 247 248 247 247 248 249 249 250 251 250 249 249 250 250 250 250 250 250 250 250 249 249
241 240 242 242 242 241 242 243 245 244 244 243 241 248 251 251 252 252 251 249 246 245 246 247 247 247 247 248 247 247 249 248 248 247 247 247 247 247 247 247 247 253 249 248 249 249 248 249 249 249 248 248 249 249
242 239 238 240 241 244 242 243 243 243 241 241 244 247 247 248 247 248 249 245 242 244 246 247 248 244 245 245 245 244 245 246 248 248 249 250 250 250 248 248 248 249 249 248 250 251 248 249 248 249 248 249 250 249
241 236 243 242 242 245 243 240 241 238 237 238 236 240 242 243 244 243 242 243 244 246 246 243 243 242 245 245 246 247 245 244 245 247 247 248 248 247 247 247 247 248 248 247 249 250 252 252 252 250 250 249 249 249
238 238 242 244 244 243 239 235 233 233 234 236 233 236 241 241 241 243 242 242 241 240 241 244 244 243 242 243 244 244 247 245 242 243 244 245 246 246 246 247 248 247 246 246 246 246 248 248 247 246 247 247 247 248
240 238 241 243 244 238 236 238 238 239 239 239 241 234 239 241 245 248 244 240 241 242 244 243 242 245 244 244 244 245 245 245 245 246 244 246 246 247 247 247 246 245 245 246 247 247 247 246 247 247 247 246 246 246
238 236 237 240 242 243 240 238 242 243 241 241 242 239 239 240 245 249 244 242 245 245 245 245 245 245 244 243 244 245 246 246 245 250 252 251 251 250 249 248 247 246 245 246 247 247 246 246 246 245 245 245 246 246

GFSWCAN_sfc_thetae_093.txt.gz
Theta_e
290 291 291 292 292 292 293 295 295 295 295 296 296 297 297 298 300 297 293 295 288 284 284 286 287 285 286 284 280 285 284 284 284 284 286 284 284 282 280 280 283 283 282 282 278 273 277 285 286 286 289 285 286 289
289 290 290 291 291 292 292 293 294 295 295 295 295 296 297 297 299 298 291 296 294 286 286 289 289 290 288 288 286 285 285 284 286 284 284 284 280 282 278 280 282 282 285 284 286 284 285 284 285 285 286 286 284 288
287 288 289 290 290 291 291 292 293 294 295 295 295 296 297 297 298 295 293 293 290 284 283 284 284 289 291 290 291 286 284 288 286 287 285 283 281 283 280 280 280 282 283 282 284 283 283 283 284 285 286 285 287 289
286 287 288 290 291 291 292 292 292 294 294 294 295 296 296 297 298 295 289 293 290 284 277 282 287 285 289 290 289 290 288 287 287 286 284 282 280 283 282 282 284 284 285 283 283 285 282 284 283 286 286 287 287 288
286 287 288 289 290 291 291 291 292 292 293 294 295 295 296 296 297 293 290 294 292 283 276 278 282 284 287 288 287 289 288 286 284 283 283 280 281 280 278 278 275 283 285 284 283 286 287 286 286 287 286 286 286 286
287 287 287 288 288 290 291 292 292 293 292 293 294 295 295 296 296 288 279 291 295 289 277 270 281 279 283 286 286 286 286 284 284 282 281 281 282 282 275 265 280 284 286 287 284 286 287 286 287 287 286 286 286 285
286 287 287 287 288 288 289 290 291 292 292 293 294 294 294 295 288 280 278 287 295 290 279 270 271 279 282 281 280 281 284 282 282 280 279 280 280 282 270 268 281 282 284 283 283 284 282 283 283 285 285 284 281 277
285 286 287 287 287 288 288 289 290 291 292 291 293 294 294 294 291 285 288 293 293 286 280 269 272 274 282 279 280 281 278 278 279 278 277 278 279 278 269 278 281 282 282 282 283 282 283 282 281 280 278 277 276 276
284 285 286 287 287 287 287 287 288 290 290 291 292 292 285 281 279 280 292 292 290 284 275 267 267 266 278 281 280 281 279 275 278 273 278 278 273 271 275 280 281 282 281 282 279 276 276 277 277 276 275 274 275 275
284 284 285 286 286 287 287 287 288 288 290 291 287 277 267 273 290 290 283 278 282 282 279 266 263 268 278 277 277 273 272 273 275 277 278 272 270 279 280 279 281 280 280 278 277 277 274 273 274 274 276 276 277 276
284 284 285 285 286 287 287 287 288 289 289 285 279 269 276 289 276 270 268 269 273 273 276 267 267 273 276 269 268 277 268 266 266 271 274 267 270 278 281 279 280 281 280 279 279 281 279 278 277 276 275 274 274 272
284 285 285 286 286 287 288 289 290 286 279 282 283 282 277 273 268 264 263 267 274 269 269 267 268 270 270 274 271 274 270 270 264 267 271 263 271 271 272 272 271 270 270 273 272 273 272 274 272 272 272 272 271 273
283 284 285 285 286 288 288 290 291 289 288 282 279 274 270 267 266 259 260 258 261 263 264 267 273 273 270 274 268 270 264 267 267 267 264 267 269 265 263 263 263 263 264 264 265 264 265 265 266 265 265 266 267 269
283 284 284 285 286 287 287 291 291 289 281 275 272 266 264 260 259 259 260 262 267 266 266 268 267 272 267 269 269 265 267 264 261 260 263 265 268 262 258 257 258 257 257 259 259 260 261 261 260 259 258 257 259 264
284 283 283 284 286 286 286 290 287 279 277 272 268 262 263 263 256 254 253 260 262 265 272 272 272 274 268 269 270 259 259 257 260 262 263 262 255 255 254 253 253 254 254 254 254 255 256 256 256 256 254 254 256 258
282 280 279 284 284 284 284 280 275 272 267 266 260 265 261 259 256 256 252 256 263 265 264 268 267 269 270 267 262 260 261 258 263 260 253 252 250 249 248 249 249 249 249 249 250 250 253 253 253 253 252 251 252 252
279 269 281 283 281 280 279 271 271 263 261 264 258 255 256 256 256 250 249 254 262 265 262 260 260 263 265 264 263 264 263 260 260 250 248 247 248 247 245 246 246 246 247 248 246 248 248 249 247 248 252 251 249 248
267 273 281 282 275 272 263 262 260 256 252 255 256 251 252 250 251 252 252 258 263 260 259 262 267 262 259 258 258 257 250 249 247 248 249 247 245 244 244 245 246 245 245 245 245 245 245 248 250 250 246 246 247 247
273 276 280 280 274 265 261 261 259 252 248 248 252 254 253 251 253 255 251 256 258 259 258 259 260 258 256 248 246 244 242 244 245 249 249 246 247 246 247 249 251 248 247 246 246 246 245 245 248 247 247 247 248 247
277 278 277 276 274 265 259 258 262 257 254 255 253 251 250 251 252 251 253 255 258 257 258 253 250 245 245 244 244 243 244 246 244 245 248 249 248 247 247 246 248 248 249 249 246 248 246 247 247 247 248 249 248 249
270 271 273 267 262 260 258 257 255 257 257 256 256 256 253 251 250 250 250 254 252 247 248 246 246 247 245 243 243 242 245 245 244 244 245 247 249 247 248 246 245 244 245 244 245 246 246 245 246 249 248 248 248 249
263 270 262 265 260 256 257 257 255 258 258 254 258 258 255 255 251 248 251 249 246 246 244 243 244 242 242 243 242 241 243 241 242 244 249 250 247 248 247 246 245 245 244 244 244 244 244 245 248 249 249 250 254 253
263 264 258 256 256 256 253 257 251 250 253 254 252 251 248 245 247 250 247 243 244 245 241 241 240 240 242 243 242 244 244 244 245 245 247 247 248 248 246 243 242 243 244 246 246 247 247 252 253 252 253 253 253 253
257 248 249 248 250 248 253 254 257 254 251 251 250 248 248 246 251 250 246 246 247 245 243 243 240 242 242 242 242 242 242 243 245 248 246 246 247 246 243 243 243 243 245 248 248 248 251 251 254 253 254 254 254 254
253 244 245 244 245 248 249 251 250 252 250 249 252 252 250 249 253 250 251 251 252 251 248 247 248 249 247 245 247 245 246 247 248 248 251 250 250 250 250 249 249 250 251 250 250 251 252 252 253 253 253 252 252 252
242 238 241 236 241 247 245 249 247 246 247 249 247 247 248 250 251 249 249 250 250 250 247 245 244 245 245 246 244 243 243 246 247 247 250 250 249 249 249 250 251 251 247 245 245 246 247 248 248 249 250 250 252 250
244 240 238 237 238 241 245 245 244 245 245 246 245 246 249 250 249 249 251 251 249 248 247 245 243 243 244 245 245 246 247 248 248 249 250 250 250 250 250 249 250 250 248 247 245 245 245 244 244 244 244 244 244 245
237 235 239 239 238 235 238 238 239 240 240 242 241 245 247 248 248 248 249 250 246 244 244 245 244 243 243 243 243 242 244 241 245 247 248 249 248 248 248 248 248 253 250 248 246 244 243 244 244 244 245 246 247 246
237 234 235 238 236 237 236 238 238 236 236 234 239 240 242 242 240 239 242 241 238 238 239 240 242 236 240 239 240 239 239 238 240 242 242 242 243 245 244 243 243 243 243 241 248 254 250 248 246 246 246 246 246 242
237 232 238 237 240 241 238 235 234 231 231 233 232 236 237 238 240 236 236 235 237 238 238 236 236 235 238 236 239 241 237 238 241 242 241 241 243 241 238 240 242 242 241 239 244 244 249 246 246 243 244 243 242 243
233 232 236 235 239 235 233 229 227 228 228 228 227 231 235 236 239 237 237 236 234 232 234 236 236 235 237 236 235 236 242 239 238 241 241 242 243 242 242 243 243 241 239 240 241 240 242 242 241 241 242 243 243 244
233 233 236 240 240 233 230 231 230 231 230 232 233 228 233 235 239 245 241 236 236 240 242 237 237 242 240 240 238 240 244 243 241 244 243 244 244 244 244 244 243 241 240 243 243 242 242 242 243 243 243 243 244 244
232 230 230 233 237 239 235 235 236 238 235 235 235 232 232 237 242 247 243 241 245 245 245 245 243 242 241 241 242 243 244 243 242 248 250 250 250 250 248 245 244 243 243 244 244 244 243 243 244 244 244 244 244 245

GFSWCAN_sfc_thetae_096.txt.gz
Theta_e
291 292 292 292 292 292 294 296 296 297 297 297 298 298 299 299 301 297 293 295 288 282 284 286 287 286 286 285 283 284 286 285 285 285 286 284 282 281 280 281 282 282 280 278 275 274 277 285 286 286 288 285 287 289
289 290 291 291 292 293 293 294 295 295 295 296 297 297 298 299 300 297 290 294 293 286 285 289 289 289 288 289 288 285 285 285 286 285 284 285 282 281 277 276 282 282 285 282 284 282 286 284 284 285 286 285 284 287
288 288 289 290 291 291 291 293 294 295 295 296 296 296 297 298 298 297 290 290 289 282 283 283 283 288 290 289 290 285 285 288 286 288 285 283 280 282 277 276 278 281 283 283 285 282 283 284 284 284 284 284 285 286
286 287 289 290 291 292 292 293 293 294 294 295 295 295 296 298 298 295 289 289 287 281 278 281 286 284 288 289 289 289 288 288 288 287 283 283 280 284 281 282 281 283 284 280 281 283 282 283 283 285 285 285 285 286
286 287 289 290 290 291 291 292 293 293 293 294 295 295 296 298 297 292 290 292 290 283 275 278 282 283 286 287 287 288 287 286 284 283 282 281 282 280 279 279 280 285 285 284 280 287 287 286 287 285 285 285 284 285
287 287 288 289 290 291 292 292 293 293 293 293 294 296 296 297 295 286 278 290 294 287 277 273 280 280 283 285 285 285 286 283 283 282 281 281 282 282 277 269 280 284 286 289 288 289 290 289 288 287 288 287 284 285
287 287 287 288 288 290 291 292 291 293 293 293 294 295 296 296 288 280 277 284 294 289 274 272 273 280 282 280 279 280 283 281 282 280 279 280 280 281 270 269 282 283 284 283 284 284 282 283 283 284 284 283 281 278
285 287 287 287 288 288 289 291 291 292 293 293 294 295 295 295 290 284 288 294 292 285 277 266 272 275 282 277 277 277 277 278 279 278 278 278 279 277 270 279 282 282 283 282 283 282 282 282 281 279 278 277 278 277
284 285 286 287 287 288 288 288 290 292 292 293 294 292 285 283 277 278 293 292 290 282 272 265 268 268 278 279 281 279 277 272 277 273 277 278 272 270 275 279 281 281 281 282 278 276 275 276 276 276 274 274 276 277
284 284 286 286 287 288 288 288 288 290 290 292 285 275 269 274 290 288 279 277 280 282 271 266 262 270 278 275 273 274 274 271 274 273 277 271 268 278 279 278 282 281 280 279 277 277 275 274 273 273 274 275 275 275
285 285 285 285 286 286 287 287 288 289 289 284 275 270 275 288 277 270 270 267 266 272 274 267 266 275 277 270 269 276 271 267 266 269 272 265 272 276 278 277 278 280 280 278 277 277 275 275 274 274 273 272 271 270
285 285 284 285 285 285 286 286 287 284 282 283 277 279 275 269 266 264 261 265 264 265 269 269 267 270 271 274 272 274 267 266 263 268 272 261 270 271 270 271 268 268 270 270 269 270 270 271 269 269 267 267 266 266
284 284 285 284 285 286 286 287 288 288 288 284 279 271 268 267 259 257 255 259 261 266 267 267 271 274 271 274 269 269 265 267 264 269 267 268 268 265 262 262 263 262 264 264 263 263 264 264 263 261 261 259 260 261
283 284 284 285 286 286 287 288 289 288 282 275 272 268 260 262 259 258 260 261 265 266 262 265 265 274 269 271 270 265 263 265 261 258 261 262 261 256 257 257 257 257 257 259 258 259 259 259 258 256 254 253 254 257
284 284 284 284 285 286 289 291 291 282 278 272 266 263 262 259 254 252 250 257 260 259 269 272 272 274 271 271 271 263 262 260 260 262 262 256 252 252 253 252 252 253 253 253 252 252 255 255 255 255 254 252 252 253
282 280 279 284 284 284 285 281 275 273 268 267 261 263 256 258 255 254 251 262 263 262 263 269 270 270 269 270 264 261 259 258 262 256 251 250 248 247 246 246 247 246 247 248 249 250 252 252 252 252 252 249 251 251
279 267 282 283 283 280 280 271 267 262 260 257 255 252 251 251 251 248 247 255 261 264 265 260 262 263 266 262 260 259 260 257 254 248 246 246 247 246 245 245 246 245 245 246 246 248 247 248 247 250 252 252 249 248
266 272 282 282 274 271 264 263 258 255 254 254 254 253 253 250 249 249 250 258 263 265 260 264 265 259 257 258 257 253 251 250 250 247 248 246 244 243 242 244 245 244 245 245 245 245 244 246 247 248 245 246 247 246
276 278 281 281 273 262 261 260 258 252 249 250 254 254 255 255 255 256 254 257 258 260 262 258 259 255 254 247 245 243 242 245 247 250 250 246 245 244 244 245 245 246 246 246 245 248 247 245 247 246 247 246 247 247
277 278 278 276 272 262 257 258 260 255 251 254 251 251 251 251 251 250 254 256 259 257 256 253 250 245 245 244 243 243 243 245 242 245 247 248 247 245 246 244 246 244 245 245 245 248 246 249 246 247 247 247 247 248
270 271 273 267 261 259 256 256 256 255 255 255 255 254 253 252 250 249 251 254 252 247 248 245 244 244 244 243 244 244 245 245 244 244 243 246 247 247 246 246 243 242 243 243 243 246 244 244 245 247 244 245 246 247
262 270 260 264 259 257 256 258 256 257 257 255 258 257 253 254 252 250 252 250 248 244 242 242 242 241 241 244 244 242 242 241 241 242 246 247 246 246 246 244 244 245 244 243 243 244 245 245 245 245 245 246 248 249
263 263 257 256 256 255 253 258 256 253 255 254 255 255 253 251 251 253 247 244 244 244 240 239 239 238 240 240 238 240 240 242 243 245 246 248 248 248 246 245 242 242 244 245 244 245 245 248 248 248 247 248 249 250
257 248 249 248 249 247 250 252 255 252 254 253 252 248 249 247 251 250 246 242 244 242 241 241 238 241 240 239 241 240 241 240 240 243 246 246 248 249 249 248 242 243 245 245 245 246 248 249 252 249 248 250 250 250
254 244 245 244 245 246 247 248 249 250 247 246 250 250 248 247 251 249 248 246 247 250 249 245 244 245 244 244 245 246 244 244 242 242 246 248 249 251 253 253 250 247 247 246 247 249 250 250 250 250 249 248 249 251
243 238 242 236 241 244 241 248 243 243 243 246 244 246 246 248 251 249 249 249 249 248 249 248 244 242 242 243 243 242 244 242 242 241 244 246 247 247 248 249 251 252 250 249 248 247 247 247 245 246 245 246 247 245
245 241 238 237 238 238 241 242 241 242 241 242 240 243 245 249 250 251 251 251 249 248 247 246 244 244 244 244 242 242 240 240 243 246 248 249 249 250 249 249 249 251 250 250 248 245 243 243 244 245 245 243 242 243
237 235 240 239 237 233 238 237 239 240 239 239 240 245 248 248 249 249 248 248 245 243 242 242 242 243 243 243 243 241 242 237 240 243 243 244 244 244 244 245 246 253 250 246 246 245 244 243 243 243 242 244 245 243
237 233 235 239 236 237 236 239 238 236 236 234 239 241 242 242 240 239 242 240 234 236 239 240 241 234 238 238 239 238 237 236 240 242 241 241 241 244 240 240 240 241 240 239 247 253 251 249 248 248 246 245 246 242
237 231 237 236 239 241 238 234 234 230 230 232 231 236 238 238 239 236 235 236 238 240 238 236 235 234 238 236 240 242 237 238 242 244 242 243 244 241 238 241 242 242 240 237 243 245 248 246 246 242 244 244 243 243
232 231 236 235 238 235 232 228 226 227 227 228 226 231 235 235 238 238 238 237 235 232 235 239 238 233 234 235 234 235 243 239 238 241 242 242 243 242 243 244 244 241 239 239 241 241 243 243 242 242 243 243 244 245
232 232 236 240 239 233 229 230 230 231 230 231 232 226 232 234 239 245 242 236 235 237 243 239 236 244 241 243 239 240 245 245 242 244 243 244 244 245 245 244 243 240 240 242 242 242 242 241 243 243 244 243 244 244
231 229 229 233 236 238 234 234 236 237 235 234 235 232 232 237 243 248 243 242 247 247 247 246 245 243 242 242 243 244 244 244 244 248 250 250 248 248 247 246 244 243 243 243 244 244 243 244 244 244 244 244 245 245

GFSWCAN_sfc_thetae_102.txt.gz
Theta_e
292 293 294 295 295 296 296 296 298 299 299 298 298 298 299 300 299 293 291 292 288 283 285 285 285 285 287 289 287 286 288 287 286 285 283 282 271 278 274 277 281 281 280 278 277 280 278 284 285 286 288 285 286 288
290 291 292 293 294 295 295 296 298 298 298 298 298 298 298 300 299 295 288 292 292 285 285 288 286 287 287 288 287 285 286 286 288 286 283 285 281 274 274 273 280 280 283 280 285 284 286 284 284 284 286 285 284 286
288 289 291 292 293 293 295 296 297 297 297 297 297 298 299 299 299 294 288 288 287 282 284 285 283 288 290 288 290 286 285 288 286 287 283 282 274 277 273 273 276 280 282 281 282 282 283 284 283 283 284 283 285 285
287 289 290 291 292 293 293 294 295 296 296 296 297 297 298 299 298 294 288 288 285 281 279 281 286 285 287 289 293 293 290 290 289 287 284 279 274 282 277 279 278 280 284 278 279 282 282 283 284 284 284 285 284 285
288 289 290 290 291 291 291 292 294 295 295 295 295 296 298 298 297 292 291 290 288 283 277 280 283 284 286 290 292 292 290 287 285 284 283 281 278 277 273 277 273 284 281 282 278 284 284 285 285 285 284 284 284 284
289 289 290 290 291 291 292 292 293 293 294 294 295 296 297 295 292 286 282 287 291 285 278 273 281 281 284 286 287 286 286 285 285 284 282 283 283 280 273 269 280 283 285 287 285 286 288 287 285 284 285 284 284 283
288 288 289 290 291 291 292 293 293 293 294 294 295 296 296 295 289 282 277 285 292 285 276 272 272 281 282 282 283 283 284 283 283 282 281 282 280 280 272 270 280 283 285 282 284 286 286 284 283 282 283 282 280 277
287 288 288 289 290 291 291 292 293 292 293 294 295 296 296 294 290 284 290 292 287 278 274 269 271 277 281 275 277 281 280 281 280 280 279 279 280 277 275 280 281 282 282 282 281 281 283 283 281 279 277 277 279 278
286 288 288 288 289 290 291 292 293 293 294 294 294 292 287 280 277 285 291 291 285 278 268 264 267 270 280 280 279 278 278 275 278 277 278 277 270 273 278 280 281 281 281 281 277 276 277 277 275 275 274 275 275 274
285 287 288 289 289 289 291 292 292 291 291 289 284 279 276 282 290 287 279 275 276 272 270 265 262 269 278 275 273 273 273 272 269 273 277 271 268 277 277 276 277 278 277 276 276 276 275 274 274 272 271 271 272 270
285 286 287 287 288 288 289 290 290 289 288 280 277 276 282 285 274 269 268 267 265 266 274 264 265 272 275 270 269 276 270 267 265 269 270 265 269 275 273 270 270 272 272 270 272 272 271 271 272 271 268 265 264 263
286 286 286 286 287 288 288 289 289 284 284 281 280 279 273 269 264 265 258 262 263 263 266 265 268 270 271 274 272 269 266 266 264 271 272 261 269 266 265 265 264 264 265 263 264 264 264 264 263 264 261 259 257 257
286 286 286 286 287 287 287 288 289 289 287 276 270 266 267 264 261 258 255 258 260 260 265 268 270 273 271 273 267 267 264 263 269 267 268 266 264 260 259 260 262 260 261 260 259 259 259 258 257 256 255 253 254 255
287 286 285 285 286 286 286 287 288 287 280 272 263 261 260 259 258 257 257 257 261 263 267 269 272 270 265 270 266 265 263 265 260 260 262 261 256 254 256 255 256 255 255 255 253 255 256 256 254 250 250 249 250 253
285 285 286 286 286 286 285 286 287 276 273 267 262 258 258 256 254 250 250 259 263 261 267 270 270 273 267 268 266 261 262 259 262 263 261 256 253 253 253 251 250 250 250 251 250 250 252 252 251 250 248 247 247 249
282 281 280 287 286 284 282 284 278 271 264 261 254 256 254 258 260 255 259 263 262 263 268 271 271 267 267 267 261 260 261 259 262 252 250 251 250 250 249 249 249 248 247 247 248 249 251 250 249 248 247 247 247 246
281 271 284 286 285 280 286 270 264 260 262 258 253 251 249 249 250 250 250 256 259 263 268 271 265 267 268 263 260 256 260 256 250 249 248 247 246 247 246 247 248 248 248 248 247 249 248 249 248 250 250 250 247 246
271 275 283 283 276 272 261 259 255 260 257 255 252 249 251 249 247 250 253 256 258 258 261 268 269 264 261 260 260 254 251 249 248 246 248 246 245 244 243 244 246 246 245 245 244 244 244 246 247 248 246 248 248 249
277 278 280 279 273 263 261 259 258 255 253 253 254 251 249 251 252 254 254 256 257 258 258 260 262 260 255 250 248 246 245 245 246 248 247 245 245 243 244 244 244 244 245 244 243 244 243 242 244 244 244 244 246 247
277 278 278 276 271 260 256 254 254 254 250 253 253 253 249 251 251 250 252 254 257 256 254 251 247 245 246 246 244 244 244 245 242 244 245 247 246 244 246 244 245 244 244 242 243 245 243 246 244 244 243 244 244 247
270 270 271 264 258 258 256 254 254 251 249 254 253 252 251 249 249 250 250 254 253 248 249 247 247 244 242 240 241 241 244 244 243 243 243 244 245 245 246 245 241 241 242 241 242 245 243 243 245 245 242 244 244 245
262 270 259 263 259 255 255 255 253 253 252 250 253 251 250 250 247 249 252 250 248 246 243 242 241 239 240 241 240 240 240 239 239 241 245 245 243 243 244 243 242 243 242 242 241 242 244 245 245 245 243 246 247 246
263 263 257 256 257 255 252 255 253 251 251 252 253 252 250 249 249 251 247 243 243 243 239 238 238 236 238 238 236 237 236 238 239 239 239 241 241 242 243 244 241 241 244 245 241 242 244 247 247 247 247 246 244 245
258 249 249 248 249 246 248 249 250 249 249 248 249 251 251 249 252 252 246 241 244 239 239 240 236 241 239 238 239 240 240 237 238 239 239 237 240 243 240 243 243 243 246 245 246 248 250 250 251 250 250 247 244 245
254 245 246 245 245 246 245 246 247 248 245 244 246 248 248 246 248 245 246 246 242 241 241 238 237 239 240 240 240 240 237 240 241 242 243 240 241 241 244 242 245 246 244 243 244 246 249 250 251 251 251 250 249 248
243 238 242 237 242 244 240 244 242 243 241 245 243 242 240 245 248 247 246 244 243 242 243 244 245 246 246 244 242 240 242 238 238 239 243 241 242 242 241 242 245 247 243 244 244 243 246 249 249 249 249 250 250 249
246 242 238 235 237 237 239 238 238 241 242 243 239 241 242 246 246 248 245 244 244 243 243 243 244 244 245 245 243 242 241 238 243 244 240 240 243 244 245 245 245 246 244 244 244 244 245 245 246 247 248 249 249 247
237 235 240 238 237 232 237 235 238 240 239 237 237 243 246 247 248 247 248 245 240 237 238 239 241 242 243 244 244 241 241 236 235 239 241 244 244 245 245 246 248 252 249 244 244 244 243 244 244 244 245 245 247 246
236 231 233 239 235 237 237 240 239 236 236 234 239 241 243 243 241 239 242 239 232 236 240 241 242 233 238 238 239 239 238 236 240 242 242 245 242 247 241 242 242 243 243 241 246 251 248 246 246 247 247 248 248 247
236 229 237 235 240 243 239 235 234 229 228 231 231 235 238 239 240 236 235 235 239 243 242 239 236 235 241 237 243 243 239 240 242 245 244 247 247 242 238 238 241 242 242 240 243 244 248 247 246 240 244 244 244 246
230 229 235 234 238 235 232 227 225 226 226 227 225 230 235 236 237 239 239 238 237 234 236 243 241 237 238 238 237 237 247 241 241 242 244 246 245 245 246 246 246 245 243 242 242 242 243 243 243 243 243 243 244 245
232 233 237 241 240 232 228 229 229 230 230 230 231 225 232 234 240 247 242 237 236 238 244 243 240 247 245 247 244 245 248 249 245 245 243 245 245 246 247 246 246 243 242 243 243 243 243 242 243 244 244 244 245 245
230 228 229 233 238 240 235 234 236 237 234 234 235 232 232 237 245 249 244 243 249 249 250 249 249 247 246 246 247 248 247 247 247 251 252 252 250 249 248 247 246 245 244 244 244 244 244 244 244 244 244 245 245 246

GFSWCAN_sfc_thetae_105.txt.gz
Theta_e
291 293 294 296 296 297 297 298 299 299 298 298 298 299 300 300 300 293 290 292 288 282 284 284 284 285 288 288 287 286 288 286 283 282 283 278 270 277 274 276 279 279 277 273 270 269 276 285 284 285 287 285 286 287
289 291 293 294 295 296 296 297 298 298 299 298 298 299 300 299 299 295 288 292 292 286 285 287 285 286 286 287 288 286 286 285 286 286 281 279 276 275 274 273 279 279 282 280 283 281 286 284 284 284 285 285 284 285
289 290 291 293 294 295 296 297 298 298 298 298 298 299 299 299 298 294 288 288 288 283 284 283 283 286 289 288 289 288 286 289 286 285 285 279 278 277 274 272 278 279 283 282 283 282 283 283 283 283 283 284 285 285
290 290 291 292 293 294 294 296 296 297 297 297 298 298 299 298 298 294 287 288 285 282 278 281 287 284 287 292 293 292 290 289 288 287 281 274 279 281 276 279 279 282 283 278 278 281 282 282 283 284 285 284 284 285
290 290 291 291 292 292 293 294 295 296 296 296 297 298 298 297 296 292 290 289 287 282 276 280 284 285 287 291 290 290 290 288 286 285 284 279 282 276 273 277 277 283 281 281 279 284 284 284 284 285 284 283 283 284
289 290 291 291 292 292 292 293 294 294 295 295 296 297 296 294 291 286 284 288 291 285 279 274 282 282 284 287 286 285 286 285 285 284 282 282 284 280 275 269 280 283 284 286 285 286 285 284 284 283 283 282 282 282
289 289 290 291 292 292 293 293 293 293 294 294 296 296 296 296 290 282 279 287 292 285 277 272 275 282 283 283 283 284 285 283 284 283 282 281 280 279 270 269 279 283 282 283 284 285 283 282 282 281 282 280 278 277
288 289 289 290 291 292 292 293 293 292 294 294 295 295 294 294 289 285 289 291 287 278 275 269 270 277 282 279 279 281 281 282 280 280 281 280 280 280 277 280 281 282 282 282 281 284 285 281 280 278 277 277 278 276
288 289 289 289 291 292 293 293 293 293 293 294 293 293 286 280 277 284 292 290 283 280 269 266 268 269 280 279 279 279 279 276 279 278 279 279 276 276 275 279 280 280 280 281 277 276 277 277 276 275 275 275 274 272
288 288 289 289 289 291 291 291 293 292 292 290 285 276 271 282 289 285 277 275 276 272 272 266 264 269 278 274 273 273 272 272 272 275 278 274 273 275 272 271 272 274 274 275 276 274 273 273 273 271 269 269 270 268
287 287 288 289 289 289 290 290 290 290 288 282 278 276 281 283 275 269 266 267 265 267 268 264 266 271 276 272 269 275 266 267 268 271 272 267 269 271 270 267 267 268 269 268 270 270 270 272 272 270 266 264 263 262
287 287 287 288 288 289 290 291 290 285 283 281 280 277 272 268 265 264 256 261 261 263 265 266 268 270 273 276 274 269 265 266 264 270 268 263 268 263 263 263 262 262 262 261 263 263 263 263 263 262 260 259 258 258
287 287 287 287 287 287 288 290 290 289 286 278 274 270 270 263 262 258 256 258 260 259 263 267 268 271 271 273 268 268 264 261 269 264 265 263 262 259 258 258 260 258 259 259 258 258 258 258 257 256 256 254 253 254
287 287 287 287 287 287 287 289 288 286 274 268 265 263 260 257 254 252 255 255 260 264 264 270 266 268 263 268 265 265 262 264 259 259 262 258 255 254 255 254 255 254 254 254 254 255 256 256 254 251 250 250 251 252
285 285 286 286 286 285 286 288 284 273 268 263 263 259 257 254 251 248 250 257 261 262 265 270 269 272 266 266 263 261 261 258 261 263 258 255 253 253 252 252 251 251 251 251 251 251 253 253 252 252 250 249 249 249
282 281 280 287 285 283 284 278 272 266 257 257 252 255 255 257 258 254 255 258 260 262 266 268 269 265 267 263 261 258 261 260 262 251 251 252 250 250 249 249 250 249 248 249 250 249 251 251 249 248 247 247 247 245
280 272 284 285 281 284 280 263 265 260 254 252 249 249 248 249 250 249 249 256 259 261 265 266 264 264 265 263 259 254 259 255 250 249 250 249 247 247 246 246 247 248 248 248 248 249 248 248 247 248 249 248 246 245
271 276 282 283 276 272 258 256 259 261 253 252 252 250 250 249 249 250 253 257 257 259 264 268 267 263 260 259 258 251 248 246 246 247 249 247 245 244 244 245 247 246 245 245 244 244 244 246 247 248 246 246 247 246
275 277 280 279 272 261 258 256 256 257 254 251 251 250 248 250 252 254 253 255 257 258 257 261 263 258 255 251 249 247 246 246 247 249 246 244 245 243 244 244 244 244 244 243 243 243 242 242 244 244 244 244 245 245
277 278 278 275 271 259 256 254 258 260 257 255 251 250 248 249 249 248 250 254 256 254 251 250 247 245 247 248 247 245 245 246 242 244 245 246 246 243 245 244 247 245 245 242 242 245 243 245 243 243 242 243 243 246
270 270 272 264 258 257 253 251 252 253 254 252 250 251 251 249 247 247 249 253 252 247 249 245 244 243 242 241 242 242 245 245 243 244 244 244 245 244 244 243 241 240 241 241 241 243 243 243 244 243 241 243 244 244
261 270 259 263 259 255 254 253 252 252 252 248 251 249 247 248 248 247 251 250 248 248 248 246 244 241 241 241 240 238 239 238 238 240 244 244 243 244 244 242 243 244 243 242 241 243 243 244 243 243 242 245 246 245
263 263 257 256 257 255 251 254 251 250 251 250 249 250 249 246 249 250 247 246 247 246 242 240 238 236 238 237 235 237 235 236 238 238 240 240 240 241 241 242 239 240 244 245 241 241 243 246 247 247 246 247 247 249
258 249 249 248 250 246 248 249 249 249 248 248 249 249 250 246 251 252 249 244 247 243 241 240 236 240 238 237 238 239 239 238 237 238 239 237 240 244 240 242 241 242 245 245 243 244 244 245 248 246 247 246 247 249
255 245 246 245 245 246 245 246 247 250 248 246 248 251 250 246 251 250 248 247 242 240 240 237 236 238 240 239 240 240 236 239 241 242 242 241 239 239 242 242 244 245 243 241 242 242 242 242 243 244 245 244 245 245
243 238 242 237 242 244 240 244 241 241 240 245 244 244 243 248 250 250 247 245 242 242 242 242 242 241 241 244 242 241 245 240 238 239 243 241 242 242 241 242 245 247 242 243 241 241 240 243 243 243 245 245 247 246
246 241 237 235 236 236 239 238 237 239 241 243 240 241 241 246 247 249 246 244 245 244 243 242 243 244 245 245 244 245 242 239 243 244 240 239 241 242 244 246 245 246 241 242 243 242 242 244 243 243 244 245 244 245
237 234 242 237 236 232 238 235 237 241 239 236 237 243 246 247 249 248 249 245 240 236 237 238 239 242 243 244 243 240 241 235 235 238 241 243 244 245 245 246 247 251 247 244 245 245 243 244 244 244 244 245 246 246
236 231 233 239 235 237 238 241 240 236 236 234 239 241 243 243 242 240 242 238 232 236 240 243 243 233 237 239 240 241 240 237 240 243 243 246 243 247 242 243 243 243 243 243 247 251 246 245 245 246 246 246 247 248
236 228 236 234 240 244 240 235 234 229 228 231 230 235 238 239 240 236 235 235 239 244 243 240 237 236 242 238 244 244 240 240 242 246 246 248 249 244 239 240 242 243 243 241 244 245 249 248 247 243 244 245 245 247
231 230 235 234 238 235 231 225 224 225 226 227 225 230 235 235 237 239 239 240 239 235 237 243 244 240 240 241 238 239 248 244 242 243 245 247 247 247 247 247 247 245 244 244 244 244 244 244 244 243 244 244 245 245
232 234 238 242 241 232 228 229 228 230 229 230 231 225 231 233 240 247 243 238 237 239 244 243 242 249 247 248 247 247 250 252 247 246 244 246 246 247 248 248 247 245 245 244 244 244 243 242 243 244 245 245 245 245
230 228 229 234 239 240 235 234 235 237 233 233 235 233 232 236 245 249 244 243 249 249 250 250 250 250 247 247 248 249 249 249 249 252 254 253 251 250 249 248 247 246 246 245 245 246 245 244 244 244 245 245 245 246

GFSWCAN_sfc_thetae_108.txt.gz
Theta_e
292 294 295 296 295 296 297 298 299 299 299 299 299 300 301 300 299 295 291 293 290 284 284 284 284 283 290 292 288 287 289 289 287 287 286 282 283 281 283 284 285 284 283 283 284 282 279 291 289 289 292 291 293 292
291 293 295 296 296 296 298 299 299 299 299 299 299 300 300 299 298 296 290 292 293 286 285 286 285 286 286 287 293 287 290 287 292 286 286 283 280 281 283 281 285 284 289 286 287 287 291 291 293 291 292 292 291 293
291 292 293 294 296 297 297 298 298 298 298 299 299 300 299 299 298 295 290 289 291 285 285 285 283 286 289 288 290 290 289 290 288 291 288 285 283 284 282 283 285 286 288 289 288 289 289 290 288 290 290 290 290 291
291 291 292 293 293 296 296 297 298 298 298 298 299 299 298 298 296 294 288 289 289 286 281 283 288 285 287 293 294 293 291 291 291 291 286 285 284 284 284 287 288 288 287 285 285 285 287 288 289 289 288 289 289 288
291 291 292 292 293 293 295 295 296 297 297 298 298 298 297 297 295 292 291 291 289 286 281 282 285 286 287 290 290 292 292 290 289 287 286 283 284 284 281 284 285 286 287 288 288 290 291 290 289 289 288 287 288 287
290 291 292 292 293 293 294 294 295 295 296 297 297 296 296 295 291 290 285 290 291 286 284 278 283 283 285 286 286 286 287 287 287 286 284 284 285 285 286 285 283 287 288 288 289 290 289 288 288 288 287 286 286 286
290 290 291 292 293 293 294 294 294 294 295 296 297 297 296 295 291 284 283 288 291 287 283 278 279 283 284 285 284 284 285 284 285 285 283 284 283 283 281 284 282 287 287 288 288 288 285 286 285 286 284 282 280 279
289 290 291 292 292 293 293 293 293 294 295 296 295 295 294 293 290 286 289 291 288 282 281 276 277 281 284 281 281 283 283 284 281 282 284 282 283 283 281 281 284 284 285 284 284 287 285 283 282 280 280 280 278 277
290 290 290 291 291 292 293 293 292 293 295 294 293 292 288 285 282 285 291 289 286 283 274 274 274 275 282 280 281 282 282 278 281 280 280 282 280 274 272 276 276 275 278 281 280 280 280 279 278 278 278 278 277 274
289 290 290 290 291 291 292 293 293 294 292 291 285 279 276 283 288 286 279 278 277 275 275 271 269 274 279 278 277 278 278 275 275 276 280 279 273 271 270 269 269 271 272 275 279 276 275 274 275 274 272 272 273 271
288 289 288 289 290 291 292 291 291 290 289 283 278 276 281 283 278 272 270 270 268 271 271 270 271 275 279 276 274 276 273 272 273 274 276 274 273 268 268 265 265 266 268 268 271 272 274 276 273 270 268 267 266 265
288 287 288 288 288 290 291 291 289 286 280 279 279 279 276 271 271 268 261 265 267 268 270 273 274 275 277 278 277 274 272 272 270 272 274 271 267 262 262 262 261 262 262 262 264 264 265 265 266 265 263 262 261 260
287 288 288 288 288 289 290 290 290 288 285 279 275 272 271 266 264 263 261 264 266 265 268 270 273 274 276 277 272 273 271 269 272 271 270 266 262 259 258 259 260 259 260 260 260 260 260 259 258 259 258 257 258 258
286 286 287 287 287 287 289 289 286 284 278 271 270 264 263 261 260 259 261 262 264 266 267 270 271 273 270 272 270 270 266 267 267 267 268 262 257 256 256 256 256 255 256 257 256 258 258 258 256 254 254 254 256 256
284 285 286 287 286 286 288 285 281 268 268 264 266 260 260 258 256 257 255 258 262 263 267 272 272 274 270 268 266 266 266 266 266 267 261 257 255 254 254 253 253 253 253 254 254 255 255 256 256 255 253 253 253 254
283 281 281 286 284 284 285 275 268 265 258 259 254 260 258 259 259 256 256 259 261 261 266 270 269 267 267 265 266 264 266 265 265 257 255 255 253 252 251 251 251 251 252 252 252 253 254 253 253 253 252 252 251 252
280 272 284 283 283 278 277 266 264 255 256 256 254 251 252 253 254 253 253 257 259 262 269 268 267 264 267 264 263 260 263 258 254 253 253 252 252 251 250 250 250 250 251 251 252 252 252 252 252 253 254 253 251 252
269 274 282 282 274 268 259 261 260 256 253 254 256 255 253 252 254 255 255 257 257 260 265 267 268 266 260 262 264 256 253 251 251 252 253 251 250 249 250 250 250 250 250 251 250 250 251 252 254 254 252 252 252 253
273 277 280 279 271 260 259 259 260 254 252 251 254 254 253 253 254 255 254 255 258 259 259 264 263 263 259 253 253 252 250 250 251 252 251 249 249 248 248 249 249 250 249 250 251 251 251 250 251 251 252 251 252 253
277 279 278 275 270 261 257 257 259 260 254 255 253 253 253 254 252 251 252 255 256 255 254 254 252 251 252 251 250 250 250 249 248 250 251 251 250 247 249 248 250 249 248 248 249 248 250 251 250 249 250 250 251 253
270 270 272 265 259 257 254 253 256 257 258 257 253 253 254 251 250 250 251 253 253 249 251 249 248 248 246 246 246 246 248 248 249 249 250 250 249 248 248 249 247 247 248 249 249 250 249 250 251 250 249 250 250 250
262 270 260 263 259 256 254 253 254 253 254 250 253 250 249 250 248 250 250 252 249 250 249 249 248 249 247 247 247 243 244 243 243 245 246 246 248 249 249 249 247 248 248 249 248 249 250 250 249 249 249 250 250 251
263 263 257 257 258 255 251 252 252 250 253 251 250 251 250 248 249 252 249 246 248 248 246 246 247 242 242 241 239 241 239 241 244 245 245 245 245 245 245 246 246 245 247 250 249 249 249 249 249 250 251 251 251 251
258 249 249 248 250 247 248 249 250 249 248 248 248 248 248 246 249 251 249 247 248 245 245 242 241 246 243 240 245 246 245 241 244 244 243 243 246 248 247 247 246 246 247 249 248 248 249 249 249 250 250 249 249 249
255 246 246 246 246 247 246 247 246 249 245 243 246 248 247 244 249 248 250 253 250 247 245 240 241 243 246 245 245 245 239 243 246 246 248 245 246 245 247 247 247 248 248 247 247 247 248 247 247 248 248 248 248 248
244 238 243 237 242 245 241 245 242 242 239 244 243 242 240 244 248 251 249 248 246 246 246 246 246 244 244 244 246 246 247 242 242 244 246 245 244 246 247 246 248 250 248 248 247 247 247 247 246 246 247 247 247 247
247 242 237 234 236 237 239 237 236 239 242 244 241 242 243 248 248 251 248 246 248 247 246 245 246 247 248 247 246 245 244 241 245 247 244 243 244 245 247 247 247 250 247 245 245 246 247 247 247 247 247 248 247 247
238 234 243 238 237 232 239 235 238 243 241 237 238 244 247 248 251 250 250 247 241 239 240 240 241 243 245 247 246 243 243 239 239 241 242 245 245 246 245 246 247 252 249 247 247 247 245 246 247 247 247 246 248 249
237 230 233 240 235 236 238 241 241 237 237 235 241 242 244 245 243 241 243 240 234 238 242 245 246 235 239 240 241 242 242 240 243 245 246 250 248 252 245 245 245 246 246 246 248 252 249 247 247 247 247 247 249 249
237 229 237 234 240 244 240 235 234 230 229 232 231 236 238 239 240 238 236 236 240 245 245 242 239 239 244 241 246 246 242 242 244 248 249 252 253 247 244 244 245 246 246 244 246 247 250 251 251 249 248 248 248 248
231 230 236 234 239 236 231 226 224 225 226 227 225 231 236 236 237 239 240 241 242 237 239 245 246 242 243 244 241 242 250 247 244 245 247 249 250 250 250 250 249 248 247 246 246 246 247 247 246 246 246 246 246 247
232 235 239 243 241 232 227 229 229 230 229 230 231 226 232 234 240 248 244 239 238 240 244 244 244 250 249 250 249 249 251 252 247 247 246 248 248 249 250 250 249 248 247 247 247 247 247 246 246 247 247 247 247 247
230 229 229 234 239 240 235 234 236 237 233 233 235 234 235 239 247 252 248 246 252 251 252 250 250 250 248 248 249 251 250 250 251 254 256 255 252 252 252 251 250 249 248 248 248 248 248 247 247 247 247 247 248 248

GFSWCAN_sfc_thetae_111.txt.gz
Theta_e
293 295 295 296 296 296 297 298 300 299 299 299 299 301 300 299 298 297 292 295 292 286 285 284 284 284 292 293 287 288 290 289 287 286 286 286 285 284 286 287 286 285 284 284 286 284 280 293 291 289 295 294 294 295
293 294 294 295 296 297 298 299 299 299 299 299 300 300 299 299 298 297 291 294 295 287 286 286 285 285 285 286 291 291 292 290 294 288 287 287 283 284 286 282 289 286 290 287 288 288 294 294 295 297 298 296 295 296
292 293 294 296 297 297 298 299 299 299 299 300 299 299 299 298 297 296 291 291 293 285 286 286 283 286 289 288 291 292 293 293 292 297 289 286 284 289 285 287 287 289 292 291 289 291 292 293 291 293 294 294 295 295
292 293 293 294 296 297 298 298 298 299 299 299 299 298 297 297 296 294 290 291 292 287 283 284 289 285 288 292 295 295 294 294 294 294 289 286 286 288 290 290 292 290 290 288 288 287 290 292 292 292 292 292 291 292
292 292 293 293 295 295 295 297 297 298 298 298 298 297 296 296 295 294 293 292 291 287 283 284 286 287 288 290 293 294 294 293 291 288 287 285 286 287 285 290 289 290 290 288 289 291 293 293 292 292 290 290 289 287
292 292 293 293 294 295 294 295 296 297 297 297 297 297 297 295 292 293 285 292 292 288 285 281 286 285 285 287 287 287 289 289 289 287 285 285 285 288 286 286 286 289 290 291 292 295 293 293 292 292 290 289 289 287
291 292 292 293 293 294 294 295 295 296 297 297 297 297 296 295 293 286 284 288 291 289 285 281 282 285 285 285 284 285 287 285 287 285 284 285 284 287 287 285 285 288 290 290 290 289 286 289 287 288 287 284 282 280
291 292 292 292 293 293 293 294 295 296 296 295 294 294 293 293 293 287 290 291 290 286 285 280 280 283 284 282 281 283 284 284 282 284 285 283 285 287 281 280 279 280 287 285 285 288 288 286 284 282 282 281 279 278
291 291 292 292 292 293 293 293 294 295 294 293 292 291 291 287 284 285 290 290 289 285 279 278 276 277 283 282 283 283 285 279 284 281 281 283 281 272 270 272 272 271 274 278 281 282 282 281 280 280 280 279 277 276
289 289 290 292 292 292 293 293 293 293 293 292 290 286 283 284 288 287 284 284 280 280 280 275 275 277 280 281 279 281 281 277 276 277 281 278 269 269 268 267 267 268 270 272 279 277 278 277 278 276 275 276 276 273
288 289 289 290 292 292 291 291 291 291 291 286 283 282 286 285 285 280 275 274 273 275 275 274 274 277 280 278 277 277 276 276 275 275 277 276 271 266 266 264 264 265 267 267 271 274 277 278 275 272 270 269 269 268
288 288 289 289 290 291 291 291 290 286 283 284 284 283 284 278 278 274 268 271 271 270 272 274 275 276 280 279 280 277 275 276 272 275 277 273 265 262 261 261 261 261 263 263 264 265 265 266 268 267 266 264 263 263
287 288 288 288 289 291 290 289 290 288 286 285 282 275 275 272 268 269 267 270 270 267 270 272 276 275 280 279 276 276 273 271 274 274 271 266 262 260 258 258 260 260 261 261 262 262 262 261 260 262 261 261 262 260
285 286 287 287 288 288 288 286 285 284 281 274 273 266 267 267 265 264 265 265 266 267 268 269 275 274 275 274 272 272 269 270 271 270 269 263 258 257 257 257 257 257 258 258 259 260 260 260 258 257 257 258 260 259
285 285 286 286 286 287 286 282 279 272 271 268 270 263 263 262 262 261 261 262 265 265 268 274 275 276 273 271 270 270 270 269 269 268 263 259 256 256 256 255 255 255 255 256 257 258 258 259 259 257 256 256 257 258
284 282 283 285 283 282 282 277 272 270 263 263 258 265 263 265 265 263 261 264 264 263 266 271 273 272 269 269 270 266 269 268 265 260 258 258 255 254 254 254 254 254 255 256 256 256 257 256 256 256 256 255 255 255
280 276 284 285 284 278 278 272 269 261 261 261 258 257 257 260 259 259 258 261 262 264 271 272 269 267 270 269 267 262 264 260 257 256 256 255 254 253 252 253 253 253 254 254 254 254 254 255 255 257 258 256 254 255
276 279 282 282 277 274 267 267 264 263 258 259 260 258 258 257 259 261 259 260 261 264 269 268 270 269 265 266 266 258 257 255 255 255 255 254 253 252 252 252 252 252 253 253 253 253 254 255 257 257 255 255 255 256
279 279 280 279 274 268 266 263 265 259 257 258 259 259 258 259 259 259 259 260 261 262 263 269 267 264 260 257 257 256 255 254 255 255 254 253 252 251 251 252 252 253 252 252 253 254 254 253 253 254 254 254 255 256
278 279 278 276 274 269 263 261 266 263 260 259 260 260 259 259 257 258 259 258 261 263 258 259 256 255 255 254 253 253 253 253 252 254 255 254 253 250 252 251 252 251 252 253 253 252 254 255 255 254 254 253 253 254
273 273 274 270 265 262 258 258 259 259 261 260 257 258 260 259 258 257 258 257 260 254 257 253 254 253 251 251 251 250 251 251 252 252 253 253 253 252 252 253 251 251 251 252 252 254 252 253 255 254 253 253 253 253
268 272 267 268 264 262 258 257 258 258 260 258 259 258 257 258 256 256 255 259 255 254 253 254 253 252 252 251 250 248 249 247 248 249 249 249 251 253 253 253 250 251 252 252 253 252 253 254 253 253 252 253 253 253
266 266 262 261 262 260 255 259 258 255 259 257 259 259 257 256 256 256 256 254 255 253 251 250 249 247 247 247 244 246 245 245 249 251 251 251 251 251 250 251 251 250 251 253 254 253 253 253 252 251 253 253 253 253
260 252 253 253 256 254 256 254 257 257 256 254 255 256 254 252 252 258 257 257 256 251 250 250 248 251 249 245 250 252 250 246 248 250 250 248 250 252 252 252 252 251 251 252 252 252 252 252 251 252 252 252 252 251
258 248 250 250 252 253 252 253 252 255 253 250 253 255 252 249 256 256 257 259 256 255 254 249 249 250 252 253 253 252 246 248 251 251 253 251 251 251 252 252 252 252 253 250 250 251 251 251 251 250 251 250 250 249
247 243 247 247 248 251 248 251 249 248 248 251 251 250 248 252 254 256 258 258 256 256 255 253 254 253 252 250 252 253 253 248 248 248 252 251 250 250 251 250 251 253 253 251 251 251 250 250 250 249 249 249 249 248
251 248 244 240 243 244 247 245 243 247 248 248 249 249 250 252 254 258 258 255 256 256 254 254 254 253 254 254 253 252 251 247 248 252 250 249 249 250 250 249 250 253 252 249 249 249 249 249 250 250 250 250 250 250
245 243 246 244 243 241 245 244 246 247 249 244 245 248 250 253 255 259 258 255 252 249 249 250 250 251 251 252 252 251 250 248 245 245 246 247 248 249 249 249 249 254 251 251 250 249 249 249 249 249 249 249 250 251
245 238 240 242 241 244 246 248 249 247 244 245 248 250 252 253 253 253 253 249 244 246 249 252 253 247 247 247 247 247 248 247 247 248 251 254 256 256 249 249 248 249 249 249 251 253 250 248 248 249 249 249 250 251
242 236 244 241 244 249 247 242 244 237 236 237 236 240 243 245 246 247 245 245 246 249 252 251 250 248 250 249 252 251 250 248 248 251 253 255 256 253 250 250 250 250 250 249 249 250 252 253 252 251 250 251 251 251
237 238 243 244 246 245 239 234 232 232 233 235 233 236 241 241 241 244 244 247 248 247 246 249 250 248 247 249 248 250 253 252 248 248 250 252 253 252 253 253 253 252 251 250 249 249 249 249 249 248 248 248 249 249
239 241 244 246 246 238 235 238 238 239 238 237 240 234 237 240 245 253 249 245 245 248 250 249 250 254 252 253 253 253 253 255 253 251 249 250 250 252 252 253 252 252 251 250 250 249 249 248 248 249 249 249 249 249
239 237 237 241 244 244 240 239 242 243 240 241 243 241 241 243 247 253 250 248 253 255 256 255 254 253 252 251 252 253 253 254 254 257 258 257 255 255 254 254 254 253 251 251 251 250 250 249 249 249 249 249 249 250

GFSWCAN_sfc_thetae_114.txt.gz
Theta_e
295 295 295 296 296 297 296 299 299 299 299 300 301 301 300 299 299 296 291 295 291 285 285 284 284 281 287 290 286 287 289 287 287 286 285 284 280 281 279 284 285 283 282 282 278 273 276 289 289 286 289 287 288 291
295 294 295 297 296 297 298 300 299 299 299 300 300 300 299 299 299 298 290 293 294 287 286 287 285 285 285 285 290 291 288 288 291 286 285 285 279 280 281 281 288 281 286 284 285 282 288 291 290 292 291 290 290 290
295 294 293 296 297 298 299 299 300 300 300 300 299 299 299 298 298 296 290 290 291 285 286 286 283 286 287 287 289 290 289 294 290 292 287 286 279 283 279 281 285 284 289 283 283 285 286 288 288 290 291 290 292 291
294 293 294 297 298 298 299 299 299 300 300 299 299 298 298 297 296 295 288 290 290 286 283 284 289 285 287 289 293 294 292 293 293 290 286 286 282 284 283 283 283 284 287 283 281 282 285 286 287 288 289 289 289 289
293 293 294 296 296 295 297 299 299 299 298 298 297 297 296 296 296 292 290 290 290 286 282 283 286 287 288 290 292 294 293 291 287 286 285 283 283 284 280 284 279 286 285 285 281 287 288 290 288 289 287 286 285 285
293 294 294 295 295 295 297 297 298 297 297 298 297 297 296 295 293 291 285 290 290 287 284 279 285 284 285 286 288 288 288 288 287 285 283 282 284 285 283 282 282 286 288 288 288 290 290 289 288 288 286 284 284 284
293 293 293 294 294 293 295 296 297 297 297 296 295 295 296 295 290 284 280 286 291 288 285 281 281 284 284 285 284 285 287 285 286 285 283 283 283 285 285 276 277 277 284 284 284 284 284 284 284 284 284 281 280 279
292 293 293 293 294 293 294 295 296 296 295 294 294 294 294 294 292 285 288 290 289 285 285 280 280 282 284 281 280 284 283 284 282 283 284 282 283 284 275 275 274 273 276 276 279 282 284 282 281 279 280 279 277 276
291 291 293 293 294 294 294 295 295 294 294 294 293 293 289 284 279 282 290 290 288 284 277 276 272 273 282 281 282 282 284 278 283 280 280 282 276 267 267 268 268 268 270 271 275 277 277 278 277 277 277 276 275 273
290 290 292 292 292 292 293 293 293 293 293 293 287 282 277 280 289 287 281 281 277 279 279 274 275 275 279 280 277 280 281 277 275 276 280 273 265 267 266 265 264 265 267 268 273 273 272 273 274 272 271 273 273 271
289 289 290 291 291 292 291 292 292 291 291 282 278 275 281 287 280 276 270 271 271 271 272 273 275 274 280 276 276 278 276 276 274 274 276 274 267 264 264 263 262 263 265 265 268 269 271 272 271 269 267 266 266 265
288 288 289 289 290 290 290 291 290 284 281 279 279 280 278 274 271 268 263 267 268 265 270 270 273 275 278 278 278 276 275 276 271 275 276 269 263 261 260 260 260 261 262 262 264 264 264 265 266 265 264 263 263 263
287 287 288 288 289 290 289 288 288 287 285 281 274 267 269 266 262 261 260 263 265 265 268 269 272 274 276 278 275 275 271 270 274 273 266 262 261 259 258 258 259 259 260 261 261 262 261 260 261 262 261 263 262 261
286 287 287 287 287 288 287 285 284 283 276 269 265 260 261 257 258 257 259 260 264 265 265 265 271 272 273 271 272 269 269 269 270 269 264 260 257 257 257 257 256 256 258 258 259 260 260 260 258 259 259 260 261 260
284 285 286 286 287 285 285 282 280 270 267 262 263 257 257 260 260 259 260 261 265 263 264 268 271 275 269 268 269 268 268 266 265 263 260 257 256 256 255 255 254 255 256 256 257 258 258 260 259 257 258 258 259 260
284 282 281 286 286 282 282 275 270 267 262 259 255 261 260 260 261 260 260 260 263 261 263 266 268 267 265 265 264 260 263 261 260 257 257 258 255 254 254 254 254 255 255 256 256 257 257 257 256 257 258 257 257 256
281 275 284 284 282 278 279 269 265 259 257 256 254 256 255 257 257 258 257 258 261 260 263 265 264 264 267 265 261 257 256 255 255 255 256 254 253 252 253 254 254 254 254 255 255 255 256 257 258 259 258 256 256 256
272 276 283 282 276 273 265 265 262 259 255 257 256 255 256 255 255 256 256 259 257 258 260 260 265 262 257 260 258 255 254 254 254 255 255 254 253 252 252 251 252 252 253 253 254 255 256 255 257 256 256 255 256 257
275 278 281 280 274 265 261 260 262 255 253 254 256 257 255 255 255 256 255 257 257 257 257 259 256 254 254 254 252 253 252 251 251 253 253 252 252 250 251 252 252 252 251 251 251 252 253 253 253 253 253 254 254 255
279 279 279 277 275 264 259 257 262 258 253 255 254 253 254 253 253 253 253 256 255 254 252 251 248 249 250 250 251 251 251 252 250 251 253 253 251 249 250 249 250 250 251 251 252 253 252 253 253 253 253 252 251 252
273 272 275 268 263 260 256 255 255 254 255 254 253 254 255 255 252 254 253 254 253 250 249 249 248 248 246 246 247 246 248 249 249 249 249 250 250 250 250 250 249 249 249 249 250 251 252 250 251 251 250 249 250 250
265 273 264 268 263 258 256 256 254 255 255 252 254 253 250 250 249 249 251 252 249 249 247 248 247 246 246 245 244 243 242 242 244 245 249 248 247 249 249 248 248 248 248 249 249 250 250 250 250 249 248 249 250 249
266 266 261 260 259 256 252 255 252 252 252 252 253 252 250 249 249 252 250 248 248 246 244 244 243 242 242 242 240 241 240 240 241 243 244 244 245 245 246 246 246 246 247 249 250 249 249 251 249 249 248 250 249 250
260 251 252 251 253 249 252 252 253 252 251 250 249 248 248 245 249 252 250 249 248 246 244 243 242 243 242 240 242 244 242 241 241 243 244 242 244 246 246 247 245 247 248 247 245 245 246 247 249 247 247 247 246 247
256 248 248 247 248 249 249 248 248 250 246 245 247 248 247 244 248 249 250 250 248 247 246 242 242 244 244 244 245 245 241 244 244 244 245 247 243 243 246 247 248 249 248 244 245 245 246 245 246 246 246 245 246 246
246 241 244 242 244 246 243 246 243 242 242 244 244 244 242 245 248 250 250 250 248 247 246 245 245 245 244 246 244 245 245 242 241 241 245 245 245 243 243 244 248 250 247 247 243 244 245 245 244 244 245 246 247 247
248 245 240 238 240 241 242 240 240 242 243 244 242 243 244 248 248 252 250 248 248 247 247 246 247 247 247 246 246 244 243 244 245 246 243 243 245 247 247 248 248 250 244 245 244 244 245 245 246 247 247 248 248 248
242 240 246 240 240 238 241 240 241 244 243 240 240 244 246 249 251 252 252 248 244 243 243 243 244 246 246 248 245 244 244 242 241 243 245 247 247 248 248 249 250 254 250 248 247 247 246 247 247 247 248 248 249 250
240 237 239 242 239 240 241 243 243 241 239 239 243 244 246 248 247 245 246 244 239 241 242 243 247 242 242 244 245 245 245 243 244 245 247 251 249 252 248 248 248 247 247 247 250 253 249 248 248 248 248 248 249 250
240 234 241 238 242 246 241 236 237 232 234 234 233 238 241 242 244 242 241 240 242 246 246 245 243 243 246 244 247 247 246 247 248 250 249 253 254 248 244 246 247 248 248 247 248 249 253 253 253 252 251 251 252 252
238 237 240 240 242 238 233 230 230 230 231 230 229 232 237 239 240 242 244 245 246 241 243 247 246 245 245 246 244 244 250 249 248 249 250 252 252 252 252 252 252 251 249 250 250 249 250 250 250 249 249 249 249 250
240 241 243 245 243 234 231 233 233 234 233 232 234 231 234 236 241 249 245 242 241 243 246 246 246 251 250 252 249 250 252 254 250 250 249 250 251 252 253 253 254 253 253 252 252 251 251 250 249 250 250 250 250 250
240 239 240 241 244 242 237 236 238 238 236 235 237 237 236 239 245 250 246 247 251 250 253 253 253 249 248 249 250 252 252 252 252 257 259 258 258 257 257 257 256 255 253 253 252 252 251 251 250 250 250 250 250 251

GFSWCAN_sfc_thetae_117.txt.gz
Theta_e
295 296 297 296 298 298 299 298 297 300 302 302 302 302 301 301 300 293 288 293 291 285 285 284 284 281 284 286 286 287 289 287 286 284 285 283 282 282 282 285 286 284 283 282 276 269 277 287 290 288 290 288 288 291
295 295 297 297 297 298 299 299 298 297 301 301 301 300 300 300 300 296 286 291 292 288 286 288 286 285 286 286 282 289 288 287 289 286 285 283 280 282 280 282 287 282 286 284 286 284 287 287 291 293 290 289 289 290
295 295 296 297 298 298 300 299 300 300 300 300 300 300 299 300 300 294 286 287 290 285 285 285 283 287 287 286 288 284 288 294 291 292 285 280 277 281 280 277 282 284 288 284 284 285 285 288 287 290 290 287 289 289
295 295 297 298 299 299 299 300 300 300 299 299 299 298 298 298 297 294 288 289 290 285 281 283 290 285 289 288 286 288 291 294 292 290 285 284 282 283 281 283 284 285 286 281 281 283 285 285 287 289 289 289 289 288
295 295 296 296 297 298 299 299 299 299 298 298 298 297 297 297 295 290 287 287 288 285 281 283 286 287 287 288 291 292 293 291 287 286 285 283 283 284 282 285 282 285 286 285 283 287 287 290 289 288 287 288 287 286
294 294 295 295 295 298 298 298 298 298 298 297 297 297 297 296 295 288 282 288 289 287 283 279 285 284 285 286 289 289 289 288 287 286 283 282 284 284 283 279 279 278 281 282 284 286 288 287 287 286 285 284 284 284
294 294 295 295 294 297 297 297 297 296 296 295 295 296 296 295 286 279 276 283 291 287 284 280 280 284 284 285 284 285 287 285 286 285 283 283 283 285 279 276 274 274 275 277 278 281 284 283 284 284 283 281 280 279
293 294 294 295 295 296 296 296 295 295 295 295 294 294 294 295 290 279 285 290 289 283 283 277 278 281 283 281 280 284 283 284 283 283 283 281 283 281 270 270 270 269 273 275 273 278 280 281 280 279 280 280 278 277
291 293 292 293 293 294 294 294 294 294 295 294 294 293 284 280 274 275 290 290 287 282 276 275 270 272 282 281 281 282 284 278 282 279 279 280 270 260 264 264 265 265 266 267 270 275 275 276 275 276 277 276 275 273
289 290 291 291 292 292 293 293 293 293 293 292 284 274 271 274 289 286 276 276 276 276 277 273 275 273 278 278 277 279 280 277 274 276 279 268 262 265 264 263 263 263 265 266 270 273 271 271 272 270 270 272 273 271
288 289 289 290 291 291 291 292 291 290 288 277 270 268 276 285 275 267 264 269 270 269 271 272 275 273 280 274 275 278 275 276 273 274 275 270 262 262 262 261 261 262 263 264 266 268 268 269 268 267 266 266 266 266
288 288 289 289 289 290 290 290 290 279 272 274 275 274 270 267 263 264 256 265 266 264 267 267 271 274 275 279 276 277 274 276 270 274 274 263 261 259 258 258 260 259 260 262 262 263 264 265 265 264 263 263 263 264
288 288 288 289 289 289 288 288 288 287 284 272 266 263 264 260 259 255 255 259 261 263 265 265 264 274 275 277 274 274 271 269 274 270 261 259 259 258 257 257 257 258 259 260 261 261 261 261 261 263 263 263 264 264
286 286 287 288 288 287 286 285 283 281 271 264 260 258 256 252 253 253 254 257 263 264 263 262 263 271 271 271 271 270 270 271 270 266 260 258 256 256 256 256 255 255 257 257 258 260 260 259 258 259 260 262 262 261
285 285 286 286 286 285 284 281 279 265 262 256 259 254 255 258 257 257 259 260 264 262 261 262 266 272 266 267 269 268 268 263 262 261 258 257 256 255 254 254 254 255 255 256 257 257 258 259 258 257 258 259 260 261
284 281 279 286 285 283 282 271 264 262 258 255 254 258 257 257 258 258 255 254 260 260 260 262 263 265 264 262 263 259 263 261 259 256 256 256 255 254 253 254 254 255 255 255 256 256 257 257 257 258 258 258 258 259
280 268 283 284 282 279 278 263 260 255 254 254 256 251 252 253 254 255 254 255 260 256 260 261 263 262 265 262 258 255 256 255 254 255 256 254 253 253 253 254 253 254 254 255 255 256 257 258 260 259 257 257 258 258
267 273 283 282 272 269 260 260 257 256 252 252 254 253 252 253 250 251 250 252 255 254 256 259 262 257 254 257 256 254 254 255 255 255 255 255 254 253 253 252 253 254 254 254 255 256 256 256 257 256 256 256 258 257
271 279 281 280 272 261 259 259 258 254 250 249 251 253 250 250 251 252 249 253 251 253 253 254 253 252 253 252 251 251 251 251 251 253 254 253 253 252 252 253 253 253 252 253 253 253 254 254 254 254 255 255 255 256
279 279 279 276 271 261 257 256 257 255 251 254 249 250 250 250 251 247 247 252 250 249 251 249 247 246 250 251 251 250 251 251 250 250 252 252 252 250 251 251 252 251 251 252 253 255 254 255 255 254 254 254 254 254
271 271 274 265 259 257 254 251 253 252 251 253 249 250 252 250 248 248 249 250 252 248 249 248 248 248 245 245 247 248 250 250 249 248 248 250 250 250 249 249 249 249 249 249 250 251 252 252 253 253 252 252 252 252
263 273 261 266 260 256 254 253 253 252 253 249 252 249 248 249 247 248 249 252 246 247 245 246 245 244 244 244 244 242 244 243 244 247 249 249 248 249 249 247 248 249 249 249 249 250 250 250 250 250 249 250 250 250
265 265 259 259 259 256 252 252 252 251 252 252 249 250 249 246 247 250 250 245 247 245 242 242 241 239 241 240 238 240 239 239 241 242 244 247 248 248 248 249 247 247 248 250 248 249 249 250 250 250 249 249 248 250
260 251 252 251 253 250 249 250 250 249 248 248 247 248 248 244 248 250 250 245 248 242 242 242 239 242 242 240 241 242 242 240 239 240 242 240 244 245 243 246 246 247 249 251 248 249 250 250 250 249 249 248 248 248
257 249 248 248 246 249 247 247 246 249 245 242 246 247 246 242 248 247 249 249 244 243 243 239 238 240 243 240 242 243 239 241 241 242 245 242 241 242 246 244 247 248 246 243 245 244 245 242 243 245 246 244 245 246
247 241 245 240 244 247 242 246 242 243 239 243 243 241 239 243 249 251 249 248 245 245 244 245 245 242 242 245 244 243 245 241 239 240 245 242 244 244 243 244 248 251 245 245 243 243 245 244 242 243 245 246 246 246
250 246 240 236 239 239 241 238 237 240 242 245 242 241 242 247 248 252 248 247 249 248 246 245 247 248 248 246 245 245 241 243 246 247 242 241 244 246 247 248 249 251 244 243 244 244 246 247 246 247 247 248 248 248
242 239 248 241 239 236 241 238 240 244 243 239 240 245 247 250 252 252 253 248 243 241 241 241 242 245 246 248 245 243 243 239 240 242 245 248 248 248 248 249 250 255 251 248 247 246 246 247 248 248 248 248 249 250
241 236 238 242 238 239 241 244 243 240 238 238 244 245 246 247 246 244 246 243 237 240 243 244 247 239 241 242 243 244 245 242 244 246 247 251 249 252 248 247 248 248 247 247 250 254 250 248 248 248 248 249 250 251
241 234 241 238 243 247 242 237 237 231 231 234 233 238 240 242 243 240 239 239 242 247 246 245 243 243 245 243 246 247 244 245 247 250 249 252 253 247 243 245 248 250 250 249 249 251 254 255 254 253 252 253 253 252
239 237 242 241 244 240 234 230 228 229 229 229 228 233 238 238 240 241 242 244 246 240 242 247 246 245 245 245 243 242 250 247 247 248 250 252 251 251 252 253 254 254 254 253 252 252 252 252 251 251 251 251 251 251
243 242 245 248 246 238 235 234 235 233 232 232 233 228 233 235 241 249 244 241 240 242 246 245 246 252 249 251 246 247 250 248 247 251 251 252 252 252 253 253 253 254 253 253 253 253 252 251 251 251 251 251 251 251
244 242 242 244 246 245 240 240 242 242 237 236 237 235 235 238 246 250 246 246 250 249 251 250 251 249 248 249 249 249 250 250 252 257 258 259 258 259 259 259 258 257 255 253 253 252 251 251 251 251 251 251 251 251

GFSWCAN_sfc_thetae_123.txt.gz
Theta_e
298 299 300 300 300 303 303 302 303 304 304 304 304 304 303 302 300 292 288 290 286 276 279 278 278 279 285 282 279 279 281 284 284 278 274 273 278 282 279 283 284 285 284 282 283 283 280 287 292 290 295 298 291 299
300 300 300 300 299 302 303 302 304 304 304 304 304 304 303 301 299 293 286 292 291 284 284 284 277 278 283 286 283 281 281 285 287 284 281 280 280 283 283 280 288 283 288 286 287 287 287 294 295 293 294 294 292 295
299 300 300 299 298 299 300 300 302 302 303 302 302 303 302 301 298 292 286 290 289 285 282 286 284 286 288 286 289 279 277 286 286 291 286 283 282 284 281 282 284 285 290 288 287 292 287 288 291 294 289 289 289 289
298 299 299 300 299 299 300 300 301 301 301 301 302 302 301 300 297 292 286 291 288 284 280 277 288 286 289 289 287 286 285 285 286 286 284 284 281 285 281 285 284 284 287 287 287 285 286 287 290 290 289 288 288 287
297 297 300 300 300 299 299 299 299 299 299 300 301 302 301 297 295 288 285 287 286 281 272 276 284 288 288 288 288 287 286 284 283 281 283 283 284 285 279 283 280 276 276 283 286 277 277 287 286 289 289 289 288 287
295 296 296 298 298 298 298 297 297 298 298 299 298 298 297 295 292 283 275 287 286 285 283 277 281 285 286 287 286 285 285 284 283 282 282 286 285 284 283 280 271 271 271 272 273 274 275 279 283 286 289 289 285 286
294 294 294 295 296 296 297 297 297 296 296 298 298 298 297 296 284 278 276 282 288 284 282 277 271 284 283 281 284 284 285 283 282 282 284 284 284 284 277 274 266 267 266 269 273 270 279 281 279 281 283 283 281 279
292 292 293 294 294 294 295 295 295 295 295 296 297 297 296 294 288 277 282 291 286 278 275 269 270 272 278 274 277 285 282 284 283 284 283 282 275 271 263 263 264 264 264 270 266 268 269 275 279 279 280 280 280 278
291 292 292 292 293 293 293 294 294 294 294 295 295 294 283 276 270 272 289 287 281 276 267 262 263 266 277 275 279 280 282 278 282 279 275 272 262 254 258 259 260 261 260 261 264 265 270 273 274 274 276 276 276 274
290 291 291 291 292 292 292 292 293 292 292 292 281 275 270 271 285 283 273 269 269 266 266 262 265 266 276 273 274 277 280 277 274 275 271 262 258 262 260 259 260 260 260 261 260 262 263 264 267 270 269 271 272 271
289 290 290 290 291 291 291 291 291 287 285 273 267 268 272 279 272 264 262 263 261 261 261 260 265 266 274 272 273 278 275 276 273 272 269 260 257 258 259 258 258 259 259 260 261 262 263 264 265 266 267 267 267 267
288 289 290 290 290 289 289 289 290 278 269 273 272 269 266 264 262 263 252 257 258 257 258 258 262 265 267 276 274 276 273 275 269 271 264 258 259 258 257 256 256 257 257 258 260 260 261 261 262 264 265 265 265 265
288 288 289 289 288 289 287 287 287 287 279 269 265 261 264 258 260 255 252 257 255 256 257 259 258 264 266 274 273 273 270 270 273 262 257 257 258 257 256 256 255 257 257 257 258 260 260 260 260 260 261 264 266 266
287 286 288 288 287 287 285 284 283 277 267 261 260 259 256 253 252 250 252 252 258 259 258 259 257 261 265 268 271 269 271 269 265 260 257 256 256 255 255 255 255 254 255 256 257 258 259 259 259 259 260 261 263 264
285 285 286 287 286 285 283 280 277 263 261 257 259 254 254 255 253 252 251 253 255 256 257 254 257 264 265 264 267 268 266 259 258 257 257 256 256 255 254 254 254 254 255 255 257 257 258 259 259 259 259 260 261 262
283 281 279 286 285 282 280 270 263 259 256 256 254 256 253 252 253 251 246 248 253 258 256 254 253 259 261 260 261 257 261 258 258 256 256 256 255 255 254 254 254 255 255 255 256 257 258 258 258 259 259 259 259 259
280 268 283 284 281 278 277 262 260 254 254 255 255 247 249 249 251 248 246 251 256 251 252 251 257 257 261 258 256 256 256 256 255 256 256 256 255 254 254 254 254 254 254 255 255 256 257 258 259 258 257 258 259 259
267 272 282 282 269 268 258 258 257 258 255 252 256 252 246 247 247 247 247 248 250 252 251 253 256 254 251 254 256 256 256 255 256 256 256 255 254 254 254 253 254 255 254 255 255 256 256 256 256 256 256 257 259 258
271 278 280 279 271 261 260 258 257 256 251 248 249 250 247 247 248 249 244 247 247 249 249 251 252 249 251 251 251 254 253 252 252 253 254 254 254 253 253 254 254 254 254 254 255 255 256 256 256 256 256 257 257 257
279 280 279 276 271 261 258 256 255 256 252 253 247 248 247 249 247 242 242 246 247 247 252 252 250 252 252 254 253 252 252 252 250 250 253 254 253 251 252 251 252 252 252 254 254 255 255 256 256 255 255 255 255 254
272 271 273 264 258 256 253 250 253 250 249 252 246 248 250 247 246 246 246 247 252 248 251 248 248 249 248 246 246 245 248 248 248 249 249 250 251 250 250 250 249 249 249 250 250 252 252 252 253 253 252 253 253 253
262 272 261 265 260 256 254 250 252 251 251 249 249 246 246 248 246 247 247 252 247 249 246 246 244 242 242 243 243 241 242 242 241 244 248 248 247 249 249 247 247 249 249 249 249 249 250 250 250 250 249 250 251 251
266 265 259 259 259 256 252 250 252 249 253 252 248 251 248 245 245 249 250 244 247 244 240 240 240 237 240 238 236 238 238 239 240 242 243 244 244 244 245 246 244 244 248 250 247 247 248 250 250 249 249 249 248 248
261 252 252 250 252 251 248 248 247 247 247 247 247 249 248 243 246 249 251 244 247 239 240 240 237 241 240 239 240 241 240 238 237 239 239 237 240 244 241 244 243 245 247 248 247 246 246 245 248 246 246 245 246 247
260 251 250 249 245 250 247 246 245 249 246 239 245 247 245 239 247 248 250 250 243 242 240 234 235 239 244 241 241 241 236 241 241 243 244 241 239 242 246 244 247 249 245 244 245 244 246 244 244 244 246 244 246 248
252 244 248 242 246 250 244 249 245 245 239 244 243 239 236 243 249 252 250 249 247 247 245 246 248 242 241 244 244 244 246 241 239 242 245 242 243 244 244 244 246 250 242 243 243 243 245 246 244 245 246 247 247 246
254 249 240 236 239 240 241 237 236 240 243 247 244 243 244 248 248 254 250 248 250 250 248 249 250 251 251 246 245 243 239 242 247 247 242 241 244 245 246 247 248 249 241 241 241 241 244 247 248 248 249 249 246 246
243 240 250 242 241 235 243 238 241 244 245 239 242 247 249 251 254 254 254 248 243 240 241 240 241 244 245 246 244 242 241 238 240 243 245 247 247 247 245 247 249 254 252 249 249 249 249 249 249 249 249 249 250 250
244 239 242 246 242 241 244 248 247 244 241 242 247 247 248 248 246 244 246 241 236 241 246 246 247 238 240 240 241 242 241 242 247 249 248 249 248 251 243 244 246 247 248 248 250 255 254 254 254 253 252 251 252 252
244 238 245 246 247 250 247 241 241 237 236 237 235 239 242 243 243 239 238 238 244 248 247 245 243 244 246 246 246 246 242 245 248 251 249 250 251 246 244 246 247 247 246 245 248 249 253 249 249 245 246 248 248 249
240 240 244 246 248 246 242 238 236 236 237 236 234 236 240 239 240 242 243 244 243 240 243 245 242 240 243 244 244 243 250 245 246 247 247 246 245 247 249 250 250 247 246 247 248 248 249 249 249 248 248 247 248 248
241 243 246 250 251 242 239 241 243 242 242 239 240 236 239 240 244 250 244 242 242 243 247 244 245 249 248 248 245 246 250 245 245 247 247 248 248 249 250 250 248 246 247 248 247 247 246 246 248 248 249 248 248 249
244 244 245 247 249 249 245 243 245 245 245 245 245 242 242 243 248 252 246 246 247 248 248 248 248 245 245 246 247 246 248 246 247 255 256 257 256 256 255 252 249 246 246 246 246 246 246 246 246 246 246 245 245 245